Time,TemperatureF,DewpointF,PressureIn,WindDirection,WindDirectionDegrees,WindSpeedMPH,WindSpeedGustMPH,Humidity,HourlyPrecipIn,Conditions,Clouds,dailyrainin,SoftwareType,DateUTC
2013-01-17 00:00:00,38.1,36.5,30.16,NNW,342,1.5,12.0,94,0.00,,CLR,0.00,VWS V14.01,2013-01-17 06:00:00,
2013-01-17 00:01:00,38.1,36.5,30.16,NW,315,3.0,12.0,94,0.00,,CLR,0.00,VWS V14.01,2013-01-17 06:01:00,
2013-01-17 00:02:00,38.1,36.5,30.15,NW,315,4.5,12.0,94,0.00,,-RA,0.00,VWS V14.01,2013-01-17 06:02:00,
2013-01-17 00:03:00,38.1,36.5,30.16,NW,306,9.0,19.5,94,0.00,,CLR,0.00,VWS V14.01,2013-01-17 06:03:00,
2013-01-17 00:04:00,38.2,36.6,30.16,NNW,343,6.0,19.5,94,0.00,,CLR,0.00,VWS V14.01,2013-01-17 06:04:00,
2013-01-17 00:05:00,38.2,36.6,30.16,North,5,10.5,19.5,94,0.00,,CLR,0.00,VWS V14.01,2013-01-17 06:05:00,
2013-01-17 00:06:00,38.2,36.6,30.16,NNW,336,6.0,19.5,94,0.00,,CLR,0.00,VWS V14.01,2013-01-17 06:06:00,
2013-01-17 00:07:00,38.2,36.6,30.16,North,5,10.5,19.5,94,0.00,,-RA,0.00,VWS V14.01,2013-01-17 06:07:00,
2013-01-17 00:08:00,38.2,36.6,30.15,North,355,3.0,10.5,94,0.00,,CLR,0.00,VWS V14.01,2013-01-17 06:08:00,
2013-01-17 00:09:00,38.2,36.6,30.15,North,360,7.5,9.0,94,0.00,,CLR,0.00,VWS V14.01,2013-01-17 06:09:00,
2013-01-17 00:10:00,38.3,36.7,30.15,NW,304,7.5,12.0,94,0.00,,CLR,0.00,VWS V14.01,2013-01-17 06:10:00,
2013-01-17 00:11:00,38.3,36.7,30.15,NNW,344,6.0,12.0,94,0.00,,CLR,0.00,VWS V14.01,2013-01-17 06:11:00,
2013-01-17 00:12:00,38.3,36.7,30.16,North,11,10.5,12.0,94,0.00,,-RA,0.00,VWS V14.01,2013-01-17 06:12:00,
2013-01-17 00:13:00,38.3,36.7,30.16,NW,317,12.0,18.0,94,0.00,,CLR,0.00,VWS V14.01,2013-01-17 06:13:00,
2013-01-17 00:14:00,38.3,36.7,30.16,NNW,341,4.5,18.0,94,0.00,,CLR,0.00,VWS V14.01,2013-01-17 06:14:00,
2013-01-17 00:15:00,38.3,36.7,30.16,NNW,332,10.5,18.0,94,0.00,,CLR,0.00,VWS V14.01,2013-01-17 06:15:00,
2013-01-17 00:16:00,38.4,36.8,30.16,North,5,1.5,12.0,94,0.00,,CLR,0.00,VWS V14.01,2013-01-17 06:16:00,
2013-01-17 00:17:00,38.4,36.8,30.16,NNE,17,4.5,12.0,94,0.00,,-RA,0.00,VWS V14.01,2013-01-17 06:17:00,
2013-01-17 00:18:00,38.3,36.7,30.16,NW,321,7.5,12.0,94,0.00,,CLR,0.00,VWS V14.01,2013-01-17 06:18:00,
2013-01-17 00:19:00,38.4,36.8,30.16,NW,326,4.5,12.0,94,0.00,,CLR,0.00,VWS V14.01,2013-01-17 06:19:00,
2013-01-17 00:20:00,38.4,36.8,30.16,North,355,1.5,12.0,94,0.00,,CLR,0.00,VWS V14.01,2013-01-17 06:20:00,
2013-01-17 00:21:00,38.4,36.8,30.16,NNW,334,3.0,12.0,94,0.00,,CLR,0.00,VWS V14.01,2013-01-17 06:21:00,
2013-01-17 00:22:00,38.4,36.8,30.16,North,355,4.5,7.5,94,0.00,,-RA,0.00,VWS V14.01,2013-01-17 06:22:00,
2013-01-17 00:23:00,38.4,36.8,30.16,NNW,333,4.5,10.5,94,0.00,,CLR,0.00,VWS V14.01,2013-01-17 06:23:00,
2013-01-17 00:24:00,38.4,36.8,30.16,NNW,338,7.5,10.5,94,0.00,,CLR,0.00,VWS V14.01,2013-01-17 06:24:00,
2013-01-17 00:25:00,38.4,36.8,30.16,NNE,17,1.5,7.5,94,0.00,,CLR,0.00,VWS V14.01,2013-01-17 06:25:00,
2013-01-17 00:26:00,38.4,36.8,30.16,NW,320,6.0,9.0,94,0.00,,CLR,0.00,VWS V14.01,2013-01-17 06:26:00,
2013-01-17 00:27:00,38.4,36.8,30.16,NW,311,6.0,9.0,94,0.00,,-RA,0.00,VWS V14.01,2013-01-17 06:27:00,
2013-01-17 00:28:00,38.4,36.8,30.16,North,355,12.0,13.5,94,0.00,,CLR,0.00,VWS V14.01,2013-01-17 06:28:00,
2013-01-17 00:29:00,38.4,36.8,30.16,WNW,301,10.5,15.0,94,0.00,,CLR,0.00,VWS V14.01,2013-01-17 06:29:00,
2013-01-17 00:30:00,38.5,36.9,30.16,NNW,344,9.0,15.0,94,0.00,,CLR,0.00,VWS V14.01,2013-01-17 06:30:00,
2013-01-17 00:31:00,38.5,36.9,30.16,North,9,15.0,16.5,94,0.00,,CLR,0.00,VWS V14.01,2013-01-17 06:31:00,
2013-01-17 00:32:00,38.5,36.9,30.16,NW,317,6.0,16.5,94,0.00,,-RA,0.00,VWS V14.01,2013-01-17 06:32:00,
2013-01-17 00:33:00,38.5,36.7,30.16,NNW,334,7.5,15.0,93,0.00,,CLR,0.00,VWS V14.01,2013-01-17 06:33:00,
2013-01-17 00:34:00,38.6,36.8,30.16,North,10,1.5,10.5,93,0.00,,CLR,0.00,VWS V14.01,2013-01-17 06:34:00,
2013-01-17 00:35:00,38.5,36.7,30.16,NNW,330,7.5,12.0,93,0.00,,CLR,0.00,VWS V14.01,2013-01-17 06:35:00,
2013-01-17 00:36:00,38.6,36.8,30.16,North,349,12.0,12.0,93,0.00,,CLR,0.00,VWS V14.01,2013-01-17 06:36:00,
2013-01-17 00:37:00,38.6,36.8,30.16,NNE,14,15.0,15.0,93,0.00,,-RA,0.00,VWS V14.01,2013-01-17 06:37:00,
2013-01-17 00:38:00,38.6,36.8,30.16,NNE,21,7.5,15.0,93,0.00,,CLR,0.00,VWS V14.01,2013-01-17 06:38:00,
2013-01-17 00:39:00,38.6,36.8,30.16,NW,322,4.5,9.0,93,0.00,,CLR,0.00,VWS V14.01,2013-01-17 06:39:00,
2013-01-17 00:40:00,38.6,36.8,30.16,NNW,348,3.0,9.0,93,0.00,,CLR,0.00,VWS V14.01,2013-01-17 06:40:00,
2013-01-17 00:41:00,38.6,36.8,30.16,NNW,333,4.5,13.5,93,0.00,,CLR,0.00,VWS V14.01,2013-01-17 06:41:00,
2013-01-17 00:42:00,38.6,36.8,30.16,NNW,346,4.5,13.5,93,0.00,,-RA,0.00,VWS V14.01,2013-01-17 06:42:00,
2013-01-17 00:43:00,38.6,36.8,30.17,North,355,6.0,16.5,93,0.00,,CLR,0.00,VWS V14.01,2013-01-17 06:43:00,
2013-01-17 00:44:00,38.6,36.8,30.17,WNW,294,6.0,16.5,93,0.00,,CLR,0.00,VWS V14.01,2013-01-17 06:44:00,
2013-01-17 00:45:00,38.6,36.8,30.17,North,355,6.0,13.5,93,0.00,,CLR,0.00,VWS V14.01,2013-01-17 06:45:00,
2013-01-17 00:46:00,38.6,36.8,30.17,North,5,7.5,13.5,93,0.00,,CLR,0.00,VWS V14.01,2013-01-17 06:46:00,
2013-01-17 00:47:00,38.6,36.8,30.17,NW,323,10.5,13.5,93,0.00,,-RA,0.00,VWS V14.01,2013-01-17 06:47:00,
2013-01-17 00:48:00,38.6,36.8,30.17,NNE,30,3.0,15.0,93,0.00,,CLR,0.00,VWS V14.01,2013-01-17 06:48:00,
2013-01-17 00:49:00,38.7,36.8,30.17,NNW,329,9.0,15.0,93,0.00,,CLR,0.00,VWS V14.01,2013-01-17 06:49:00,
2013-01-17 00:50:00,38.7,36.8,30.17,NNW,345,7.5,12.0,93,0.00,,CLR,0.00,VWS V14.01,2013-01-17 06:50:00,
2013-01-17 00:51:00,38.7,36.8,30.16,NNE,15,3.0,12.0,93,0.00,,CLR,0.00,VWS V14.01,2013-01-17 06:51:00,
2013-01-17 00:52:00,38.7,36.8,30.17,NNW,329,10.5,12.0,93,0.00,,-RA,0.00,VWS V14.01,2013-01-17 06:52:00,
2013-01-17 00:53:00,38.7,36.8,30.17,North,360,4.5,12.0,93,0.00,,CLR,0.00,VWS V14.01,2013-01-17 06:53:00,
2013-01-17 00:54:00,38.7,36.8,30.17,NNW,348,9.0,12.0,93,0.00,,CLR,0.00,VWS V14.01,2013-01-17 06:54:00,
2013-01-17 00:55:00,38.7,36.8,30.17,NW,325,3.0,10.5,93,0.00,,CLR,0.00,VWS V14.01,2013-01-17 06:55:00,
2013-01-17 00:56:00,38.7,36.8,30.17,North,350,7.5,10.5,93,0.00,,CLR,0.00,VWS V14.01,2013-01-17 06:56:00,
2013-01-17 00:57:00,38.7,36.8,30.17,NNW,348,4.5,10.5,93,0.00,,-RA,0.00,VWS V14.01,2013-01-17 06:57:00,
2013-01-17 00:58:00,38.7,36.8,30.17,North,355,10.5,10.5,93,0.00,,CLR,0.00,VWS V14.01,2013-01-17 06:58:00,
2013-01-17 00:59:00,38.7,36.8,30.17,North,9,6.0,10.5,93,0.00,,CLR,0.00,VWS V14.01,2013-01-17 06:59:00,
2013-01-17 01:00:00,38.7,36.8,30.17,North,355,9.0,10.5,93,0.00,,CLR,0.00,VWS V14.01,2013-01-17 07:00:00,
2013-01-17 01:01:00,38.8,37.0,30.17,North,355,6.0,10.5,93,0.00,,CLR,0.00,VWS V14.01,2013-01-17 07:01:00,
2013-01-17 01:02:00,38.8,37.0,30.17,NNW,344,4.5,10.5,93,0.00,,OVC060,0.00,VWS V14.01,2013-01-17 07:02:00,
2013-01-17 01:03:00,38.8,37.0,30.17,NW,314,9.0,9.0,93,0.00,,CLR,0.00,VWS V14.01,2013-01-17 07:03:00,
2013-01-17 01:04:00,38.8,37.0,30.17,NNW,338,3.0,10.5,93,0.00,,CLR,0.00,VWS V14.01,2013-01-17 07:04:00,
2013-01-17 01:05:00,38.8,37.0,30.17,NNW,327,3.0,10.5,93,0.00,,CLR,0.00,VWS V14.01,2013-01-17 07:05:00,
2013-01-17 01:06:00,38.8,37.0,30.17,NNE,22,7.5,10.5,93,0.00,,CLR,0.00,VWS V14.01,2013-01-17 07:06:00,
2013-01-17 01:07:00,38.8,37.0,30.17,NW,319,9.0,10.5,93,0.00,,OVC060,0.00,VWS V14.01,2013-01-17 07:07:00,
2013-01-17 01:08:00,38.8,37.0,30.17,NNW,348,10.5,10.5,93,0.00,,CLR,0.00,VWS V14.01,2013-01-17 07:08:00,
2013-01-17 01:09:00,38.8,37.0,30.17,NW,326,6.0,13.5,93,0.00,,CLR,0.00,VWS V14.01,2013-01-17 07:09:00,
2013-01-17 01:10:00,38.8,37.0,30.17,NNW,339,6.0,13.5,93,0.00,,CLR,0.00,VWS V14.01,2013-01-17 07:10:00,
2013-01-17 01:11:00,38.9,37.0,30.17,North,5,6.0,13.5,93,0.00,,CLR,0.00,VWS V14.01,2013-01-17 07:11:00,
2013-01-17 01:12:00,38.8,37.0,30.17,NNW,341,9.0,13.5,93,0.00,,OVC060,0.00,VWS V14.01,2013-01-17 07:12:00,
2013-01-17 01:13:00,38.9,37.0,30.17,NNW,334,3.0,10.5,93,0.00,,CLR,0.00,VWS V14.01,2013-01-17 07:13:00,
2013-01-17 01:14:00,38.9,37.0,30.17,North,349,9.0,9.0,93,0.00,,CLR,0.00,VWS V14.01,2013-01-17 07:14:00,
2013-01-17 01:15:00,38.9,37.0,30.17,North,355,4.5,9.0,93,0.00,,CLR,0.00,VWS V14.01,2013-01-17 07:15:00,
2013-01-17 01:16:00,38.9,37.0,30.17,NNW,337,4.5,9.0,93,0.00,,CLR,0.00,VWS V14.01,2013-01-17 07:16:00,
2013-01-17 01:17:00,38.9,37.0,30.17,NNW,340,9.0,9.0,93,0.00,,OVC060,0.00,VWS V14.01,2013-01-17 07:17:00,
2013-01-17 01:18:00,38.9,37.0,30.17,North,9,6.0,9.0,93,0.00,,CLR,0.00,VWS V14.01,2013-01-17 07:18:00,
2013-01-17 01:19:00,38.9,37.0,30.17,NNW,348,3.0,9.0,93,0.00,,CLR,0.00,VWS V14.01,2013-01-17 07:19:00,
2013-01-17 01:20:00,38.9,37.0,30.17,NNW,337,4.5,6.0,93,0.00,,CLR,0.00,VWS V14.01,2013-01-17 07:20:00,
2013-01-17 01:21:00,38.9,37.0,30.17,North,355,6.0,9.0,93,0.00,,CLR,0.00,VWS V14.01,2013-01-17 07:21:00,
2013-01-17 01:22:00,38.9,37.0,30.17,North,360,7.5,9.0,93,0.00,,OVC060,0.00,VWS V14.01,2013-01-17 07:22:00,
2013-01-17 01:23:00,38.9,37.0,30.17,NNE,22,9.0,9.0,93,0.00,,CLR,0.00,VWS V14.01,2013-01-17 07:23:00,
2013-01-17 01:24:00,38.9,37.0,30.17,NNW,342,3.0,9.0,93,0.00,,CLR,0.00,VWS V14.01,2013-01-17 07:24:00,
2013-01-17 01:25:00,38.9,37.0,30.17,NE,50,6.0,9.0,93,0.00,,CLR,0.00,VWS V14.01,2013-01-17 07:25:00,
2013-01-17 01:26:00,38.9,37.0,30.17,NNW,347,6.0,6.0,93,0.00,,CLR,0.00,VWS V14.01,2013-01-17 07:26:00,
2013-01-17 01:27:00,38.9,37.0,30.17,NNW,337,3.0,6.0,93,0.00,,OVC060,0.00,VWS V14.01,2013-01-17 07:27:00,
2013-01-17 01:28:00,38.9,37.0,30.17,NNW,339,4.5,6.0,93,0.00,,CLR,0.00,VWS V14.01,2013-01-17 07:28:00,
2013-01-17 01:29:00,38.9,37.0,30.17,NNE,13,6.0,7.5,93,0.00,,CLR,0.00,VWS V14.01,2013-01-17 07:29:00,
2013-01-17 01:30:00,38.9,37.0,30.17,NNW,329,3.0,7.5,93,0.00,,CLR,0.00,VWS V14.01,2013-01-17 07:30:00,
2013-01-17 01:31:00,39.0,37.2,30.17,NNW,331,7.5,7.5,93,0.00,,CLR,0.00,VWS V14.01,2013-01-17 07:31:00,
2013-01-17 01:32:00,39.0,37.2,30.17,NNW,346,6.0,7.5,93,0.00,,OVC060,0.00,VWS V14.01,2013-01-17 07:32:00,
2013-01-17 01:33:00,39.0,37.2,30.17,NNW,332,10.5,10.5,93,0.00,,CLR,0.00,VWS V14.01,2013-01-17 07:33:00,
2013-01-17 01:34:00,39.0,36.9,30.18,NW,318,0.0,10.5,92,0.00,,CLR,0.00,VWS V14.01,2013-01-17 07:34:00,
2013-01-17 01:35:00,39.1,37.0,30.17,North,355,1.5,10.5,92,0.00,,CLR,0.00,VWS V14.01,2013-01-17 07:35:00,
2013-01-17 01:36:00,39.0,37.2,30.18,North,350,0.0,7.5,93,0.00,,CLR,0.00,VWS V14.01,2013-01-17 07:36:00,
2013-01-17 01:37:00,39.1,37.2,30.17,NNW,333,6.0,6.0,93,0.00,,OVC060,0.00,VWS V14.01,2013-01-17 07:37:00,
2013-01-17 01:38:00,39.1,37.2,30.17,North,350,7.5,12.0,93,0.00,,CLR,0.00,VWS V14.01,2013-01-17 07:38:00,
2013-01-17 01:39:00,39.1,37.0,30.17,NNW,336,1.5,12.0,92,0.00,,CLR,0.00,VWS V14.01,2013-01-17 07:39:00,
2013-01-17 01:40:00,39.1,37.0,30.17,NNW,344,4.5,7.5,92,0.00,,CLR,0.00,VWS V14.01,2013-01-17 07:40:00,
2013-01-17 01:41:00,39.1,37.0,30.17,North,350,0.0,6.0,92,0.00,,CLR,0.00,VWS V14.01,2013-01-17 07:41:00,
2013-01-17 01:42:00,39.1,37.0,30.17,North,350,1.5,6.0,92,0.00,,OVC060,0.00,VWS V14.01,2013-01-17 07:42:00,
2013-01-17 01:43:00,39.1,37.2,30.17,NNW,328,7.5,9.0,93,0.00,,CLR,0.00,VWS V14.01,2013-01-17 07:43:00,
2013-01-17 01:44:00,39.1,37.0,30.17,North,355,0.0,9.0,92,0.00,,CLR,0.00,VWS V14.01,2013-01-17 07:44:00,
2013-01-17 01:45:00,39.1,37.0,30.17,NNW,340,4.5,9.0,92,0.00,,CLR,0.00,VWS V14.01,2013-01-17 07:45:00,
2013-01-17 01:46:00,39.1,37.0,30.17,NNW,346,4.5,7.5,92,0.00,,CLR,0.00,VWS V14.01,2013-01-17 07:46:00,
2013-01-17 01:47:00,39.1,37.0,30.17,NNW,346,4.5,7.5,92,0.00,,OVC060,0.00,VWS V14.01,2013-01-17 07:47:00,
2013-01-17 01:48:00,39.1,37.0,30.17,NW,321,7.5,7.5,92,0.00,,CLR,0.00,VWS V14.01,2013-01-17 07:48:00,
2013-01-17 01:49:00,39.1,37.0,30.17,NNW,340,3.0,7.5,92,0.00,,CLR,0.00,VWS V14.01,2013-01-17 07:49:00,
2013-01-17 01:50:00,39.1,37.0,30.17,North,355,4.5,10.5,92,0.00,,CLR,0.00,VWS V14.01,2013-01-17 07:50:00,
2013-01-17 01:51:00,39.2,37.1,30.17,NNW,327,3.0,10.5,92,0.00,,CLR,0.00,VWS V14.01,2013-01-17 07:51:00,
2013-01-17 01:52:00,39.2,37.1,30.17,NNW,346,6.0,10.5,92,0.00,,OVC060,0.00,VWS V14.01,2013-01-17 07:52:00,
2013-01-17 01:53:00,39.2,37.1,30.18,NNE,15,7.5,7.5,92,0.00,,CLR,0.00,VWS V14.01,2013-01-17 07:53:00,
2013-01-17 01:54:00,39.2,37.1,30.18,NNW,327,4.5,12.0,92,0.00,,CLR,0.00,VWS V14.01,2013-01-17 07:54:00,
2013-01-17 01:55:00,39.2,37.1,30.18,North,355,4.5,12.0,92,0.00,,CLR,0.00,VWS V14.01,2013-01-17 07:55:00,
2013-01-17 01:56:00,39.2,37.1,30.18,NNW,348,7.5,10.5,92,0.00,,CLR,0.00,VWS V14.01,2013-01-17 07:56:00,
2013-01-17 01:57:00,39.2,37.1,30.18,NNW,348,6.0,10.5,92,0.00,,OVC060,0.00,VWS V14.01,2013-01-17 07:57:00,
2013-01-17 01:58:00,39.3,37.2,30.18,North,350,6.0,9.0,92,0.00,,CLR,0.00,VWS V14.01,2013-01-17 07:58:00,
2013-01-17 01:59:00,39.3,37.2,30.18,NNW,342,7.5,9.0,92,0.00,,CLR,0.00,VWS V14.01,2013-01-17 07:59:00,
2013-01-17 02:00:00,39.3,36.9,30.18,NNW,342,10.5,10.5,91,0.00,,CLR,0.00,VWS V14.01,2013-01-17 08:00:00,
2013-01-17 02:01:00,39.3,36.9,30.18,NW,326,1.5,10.5,91,0.00,,CLR,0.00,VWS V14.01,2013-01-17 08:01:00,
2013-01-17 02:02:00,39.3,36.9,30.18,NNE,16,3.0,10.5,91,0.00,,OVC065,0.00,VWS V14.01,2013-01-17 08:02:00,
2013-01-17 02:03:00,39.3,36.9,30.18,NNW,347,3.0,7.5,91,0.00,,CLR,0.00,VWS V14.01,2013-01-17 08:03:00,
2013-01-17 02:04:00,39.3,36.9,30.17,NNE,16,4.5,7.5,91,0.00,,CLR,0.00,VWS V14.01,2013-01-17 08:04:00,
2013-01-17 02:05:00,39.3,36.9,30.17,NNW,340,6.0,7.5,91,0.00,,CLR,0.00,VWS V14.01,2013-01-17 08:05:00,
2013-01-17 02:06:00,39.3,36.9,30.18,NNW,342,4.5,7.5,91,0.00,,CLR,0.00,VWS V14.01,2013-01-17 08:06:00,
2013-01-17 02:07:00,39.3,36.9,30.17,NNW,342,1.5,7.5,91,0.00,,OVC065,0.00,VWS V14.01,2013-01-17 08:07:00,
2013-01-17 02:08:00,39.3,36.9,30.17,NNE,13,4.5,4.5,91,0.00,,CLR,0.00,VWS V14.01,2013-01-17 08:08:00,
2013-01-17 02:09:00,39.3,36.9,30.17,NW,318,3.0,4.5,91,0.00,,CLR,0.00,VWS V14.01,2013-01-17 08:09:00,
2013-01-17 02:10:00,39.3,36.9,30.18,NNE,12,4.5,7.5,91,0.00,,CLR,0.00,VWS V14.01,2013-01-17 08:10:00,
2013-01-17 02:11:00,39.3,36.9,30.18,North,355,4.5,7.5,91,0.00,,CLR,0.00,VWS V14.01,2013-01-17 08:11:00,
2013-01-17 02:12:00,39.3,36.9,30.18,NW,321,4.5,7.5,91,0.00,,OVC065,0.00,VWS V14.01,2013-01-17 08:12:00,
2013-01-17 02:13:00,39.3,36.9,30.18,NNW,340,3.0,10.5,91,0.00,,CLR,0.00,VWS V14.01,2013-01-17 08:13:00,
2013-01-17 02:14:00,39.3,36.9,30.18,NNW,334,4.5,10.5,91,0.00,,CLR,0.00,VWS V14.01,2013-01-17 08:14:00,
2013-01-17 02:15:00,39.3,36.9,30.18,North,355,3.0,7.5,91,0.00,,CLR,0.00,VWS V14.01,2013-01-17 08:15:00,
2013-01-17 02:16:00,39.3,36.9,30.18,NNW,345,9.0,10.5,91,0.00,,CLR,0.00,VWS V14.01,2013-01-17 08:16:00,
2013-01-17 02:17:00,39.3,36.9,30.17,NNW,330,7.5,10.5,91,0.00,,OVC065,0.00,VWS V14.01,2013-01-17 08:17:00,
2013-01-17 02:18:00,39.3,36.9,30.17,NNW,338,1.5,10.5,91,0.00,,CLR,0.00,VWS V14.01,2013-01-17 08:18:00,
2013-01-17 02:19:00,39.3,36.9,30.17,NNW,342,4.5,9.0,91,0.00,,CLR,0.00,VWS V14.01,2013-01-17 08:19:00,
2013-01-17 02:20:00,39.3,36.9,30.17,North,350,4.5,10.5,91,0.00,,CLR,0.00,VWS V14.01,2013-01-17 08:20:00,
2013-01-17 02:21:00,39.3,36.9,30.17,NNW,338,4.5,10.5,91,0.00,,CLR,0.00,VWS V14.01,2013-01-17 08:21:00,
2013-01-17 02:22:00,39.3,36.9,30.17,NNW,336,1.5,10.5,91,0.00,,OVC065,0.00,VWS V14.01,2013-01-17 08:22:00,
2013-01-17 02:23:00,39.3,36.9,30.17,NNW,337,4.5,6.0,91,0.00,,CLR,0.00,VWS V14.01,2013-01-17 08:23:00,
2013-01-17 02:24:00,39.3,36.9,30.17,NNW,343,0.0,6.0,91,0.00,,CLR,0.00,VWS V14.01,2013-01-17 08:24:00,
2013-01-17 02:25:00,39.2,36.8,30.17,NNW,345,6.0,9.0,91,0.00,,CLR,0.00,VWS V14.01,2013-01-17 08:25:00,
2013-01-17 02:26:00,39.2,36.8,30.17,North,355,3.0,9.0,91,0.00,,CLR,0.00,VWS V14.01,2013-01-17 08:26:00,
2013-01-17 02:27:00,39.2,36.8,30.17,NW,323,3.0,9.0,91,0.00,,OVC065,0.00,VWS V14.01,2013-01-17 08:27:00,
2013-01-17 02:28:00,39.2,36.8,30.17,North,355,1.5,7.5,91,0.00,,CLR,0.00,VWS V14.01,2013-01-17 08:28:00,
2013-01-17 02:29:00,39.2,36.8,30.17,NW,321,3.0,7.5,91,0.00,,CLR,0.00,VWS V14.01,2013-01-17 08:29:00,
2013-01-17 02:30:00,39.2,36.8,30.18,North,355,6.0,7.5,91,0.00,,CLR,0.00,VWS V14.01,2013-01-17 08:30:00,
2013-01-17 02:31:00,39.2,36.8,30.18,NNW,330,4.5,7.5,91,0.00,,CLR,0.00,VWS V14.01,2013-01-17 08:31:00,
2013-01-17 02:32:00,39.2,36.8,30.18,NNW,330,3.0,7.5,91,0.00,,OVC065,0.00,VWS V14.01,2013-01-17 08:32:00,
2013-01-17 02:33:00,39.2,36.8,30.18,NW,320,1.5,10.5,91,0.00,,CLR,0.00,VWS V14.01,2013-01-17 08:33:00,
2013-01-17 02:34:00,39.2,36.8,30.18,North,355,10.5,10.5,91,0.00,,CLR,0.00,VWS V14.01,2013-01-17 08:34:00,
2013-01-17 02:35:00,39.2,36.8,30.17,NW,321,7.5,10.5,91,0.00,,CLR,0.00,VWS V14.01,2013-01-17 08:35:00,
2013-01-17 02:36:00,39.2,36.8,30.17,NNW,338,6.0,10.5,91,0.00,,CLR,0.00,VWS V14.01,2013-01-17 08:36:00,
2013-01-17 02:37:00,39.2,36.8,30.17,North,350,6.0,10.5,91,0.00,,OVC065,0.00,VWS V14.01,2013-01-17 08:37:00,
2013-01-17 02:38:00,39.2,36.8,30.17,NNW,334,1.5,9.0,91,0.00,,CLR,0.00,VWS V14.01,2013-01-17 08:38:00,
2013-01-17 02:39:00,39.2,36.8,30.17,NNW,340,4.5,9.0,91,0.00,,CLR,0.00,VWS V14.01,2013-01-17 08:39:00,
2013-01-17 02:40:00,39.2,36.8,30.17,North,360,3.0,9.0,91,0.00,,CLR,0.00,VWS V14.01,2013-01-17 08:40:00,
2013-01-17 02:41:00,39.2,36.8,30.17,NNW,342,7.5,10.5,91,0.00,,CLR,0.00,VWS V14.01,2013-01-17 08:41:00,
2013-01-17 02:42:00,39.2,36.8,30.17,NW,321,6.0,10.5,91,0.00,,OVC065,0.00,VWS V14.01,2013-01-17 08:42:00,
2013-01-17 02:43:00,39.2,36.8,30.17,NNW,346,4.5,10.5,91,0.00,,CLR,0.00,VWS V14.01,2013-01-17 08:43:00,
2013-01-17 02:44:00,39.2,36.8,30.17,NNW,348,6.0,7.5,91,0.00,,CLR,0.00,VWS V14.01,2013-01-17 08:44:00,
2013-01-17 02:45:00,39.3,36.9,30.17,NNW,340,6.0,10.5,91,0.00,,CLR,0.00,VWS V14.01,2013-01-17 08:45:00,
2013-01-17 02:46:00,39.3,36.9,30.17,North,360,3.0,10.5,91,0.00,,CLR,0.00,VWS V14.01,2013-01-17 08:46:00,
2013-01-17 02:47:00,39.3,36.9,30.17,NW,321,3.0,10.5,91,0.00,,OVC065,0.00,VWS V14.01,2013-01-17 08:47:00,
2013-01-17 02:48:00,39.3,36.9,30.17,North,355,1.5,12.0,91,0.00,,CLR,0.00,VWS V14.01,2013-01-17 08:48:00,
2013-01-17 02:49:00,39.3,36.9,30.17,NNW,346,3.0,12.0,91,0.00,,CLR,0.00,VWS V14.01,2013-01-17 08:49:00,
2013-01-17 02:50:00,39.3,36.9,30.17,NNW,329,6.0,7.5,91,0.00,,CLR,0.00,VWS V14.01,2013-01-17 08:50:00,
2013-01-17 02:51:00,39.3,36.9,30.17,North,360,4.5,7.5,91,0.00,,CLR,0.00,VWS V14.01,2013-01-17 08:51:00,
2013-01-17 02:52:00,39.3,36.9,30.18,North,5,4.5,7.5,91,0.00,,OVC065,0.00,VWS V14.01,2013-01-17 08:52:00,
2013-01-17 02:53:00,39.3,36.9,30.18,North,350,3.0,7.5,91,0.00,,CLR,0.00,VWS V14.01,2013-01-17 08:53:00,
2013-01-17 02:54:00,39.3,36.9,30.18,NNW,337,3.0,9.0,91,0.00,,CLR,0.00,VWS V14.01,2013-01-17 08:54:00,
2013-01-17 02:55:00,39.3,36.9,30.18,NNW,329,0.0,9.0,91,0.00,,CLR,0.00,VWS V14.01,2013-01-17 08:55:00,
2013-01-17 02:56:00,39.3,36.6,30.18,NNW,340,4.5,6.0,90,0.00,,CLR,0.00,VWS V14.01,2013-01-17 08:56:00,
2013-01-17 02:57:00,39.3,36.9,30.18,NNW,335,4.5,7.5,91,0.00,,OVC065,0.00,VWS V14.01,2013-01-17 08:57:00,
2013-01-17 02:58:00,39.3,36.6,30.18,NNW,343,1.5,7.5,90,0.00,,CLR,0.00,VWS V14.01,2013-01-17 08:58:00,
2013-01-17 02:59:00,39.3,36.6,30.18,NNE,15,6.0,6.0,90,0.00,,CLR,0.00,VWS V14.01,2013-01-17 08:59:00,
2013-01-17 03:00:00,39.2,36.5,30.18,NNW,342,0.0,7.5,90,0.00,,CLR,0.00,VWS V14.01,2013-01-17 09:00:00,
2013-01-17 03:01:00,39.2,36.5,30.18,North,350,7.5,7.5,90,0.00,,CLR,0.00,VWS V14.01,2013-01-17 09:01:00,
2013-01-17 03:02:00,39.2,36.5,30.18,NNW,340,6.0,7.5,90,0.00,,OVC100,0.00,VWS V14.01,2013-01-17 09:02:00,
2013-01-17 03:03:00,39.2,36.5,30.18,North,349,3.0,7.5,90,0.00,,CLR,0.00,VWS V14.01,2013-01-17 09:03:00,
2013-01-17 03:04:00,39.2,36.5,30.18,NW,326,3.0,6.0,90,0.00,,CLR,0.00,VWS V14.01,2013-01-17 09:04:00,
2013-01-17 03:05:00,39.2,36.5,30.18,North,351,4.5,7.5,90,0.00,,CLR,0.00,VWS V14.01,2013-01-17 09:05:00,
2013-01-17 03:06:00,39.2,36.5,30.18,NW,319,7.5,10.5,90,0.00,,CLR,0.00,VWS V14.01,2013-01-17 09:06:00,
2013-01-17 03:07:00,39.2,36.5,30.18,NNW,329,4.5,10.5,90,0.00,,OVC100,0.00,VWS V14.01,2013-01-17 09:07:00,
2013-01-17 03:08:00,39.2,36.5,30.18,NNW,335,3.0,10.5,90,0.00,,CLR,0.00,VWS V14.01,2013-01-17 09:08:00,
2013-01-17 03:09:00,39.2,36.5,30.18,NNW,344,4.5,7.5,90,0.00,,CLR,0.00,VWS V14.01,2013-01-17 09:09:00,
2013-01-17 03:10:00,39.2,36.5,30.18,NNW,340,4.5,7.5,90,0.00,,CLR,0.00,VWS V14.01,2013-01-17 09:10:00,
2013-01-17 03:11:00,39.2,36.5,30.18,NNW,345,6.0,6.0,90,0.00,,CLR,0.00,VWS V14.01,2013-01-17 09:11:00,
2013-01-17 03:12:00,39.2,36.5,30.18,NNW,333,6.0,6.0,90,0.00,,OVC100,0.00,VWS V14.01,2013-01-17 09:12:00,
2013-01-17 03:13:00,39.2,36.5,30.18,NNW,344,7.5,7.5,90,0.00,,CLR,0.00,VWS V14.01,2013-01-17 09:13:00,
2013-01-17 03:14:00,39.3,36.6,30.18,North,360,1.5,7.5,90,0.00,,CLR,0.00,VWS V14.01,2013-01-17 09:14:00,
2013-01-17 03:15:00,39.2,36.5,30.18,NNW,348,1.5,7.5,90,0.00,,CLR,0.00,VWS V14.01,2013-01-17 09:15:00,
2013-01-17 03:16:00,39.2,36.5,30.18,NNW,329,3.0,7.5,90,0.00,,CLR,0.00,VWS V14.01,2013-01-17 09:16:00,
2013-01-17 03:17:00,39.2,36.5,30.18,NNW,329,1.5,7.5,90,0.00,,OVC100,0.00,VWS V14.01,2013-01-17 09:17:00,
2013-01-17 03:18:00,39.2,36.5,30.18,NNW,331,1.5,6.0,90,0.00,,CLR,0.00,VWS V14.01,2013-01-17 09:18:00,
2013-01-17 03:19:00,39.2,36.5,30.18,North,350,4.5,6.0,90,0.00,,CLR,0.00,VWS V14.01,2013-01-17 09:19:00,
2013-01-17 03:20:00,39.2,36.5,30.19,NNW,346,1.5,6.0,90,0.00,,CLR,0.00,VWS V14.01,2013-01-17 09:20:00,
2013-01-17 03:21:00,39.2,36.5,30.18,NNW,342,6.0,6.0,90,0.00,,CLR,0.00,VWS V14.01,2013-01-17 09:21:00,
2013-01-17 03:22:00,39.2,36.5,30.18,NW,322,3.0,6.0,90,0.00,,OVC100,0.00,VWS V14.01,2013-01-17 09:22:00,
2013-01-17 03:23:00,39.2,36.5,30.18,NNW,336,7.5,9.0,90,0.00,,CLR,0.00,VWS V14.01,2013-01-17 09:23:00,
2013-01-17 03:24:00,39.2,36.5,30.18,NW,312,3.0,9.0,90,0.00,,CLR,0.00,VWS V14.01,2013-01-17 09:24:00,
2013-01-17 03:25:00,39.2,36.5,30.18,North,351,7.5,9.0,90,0.00,,CLR,0.00,VWS V14.01,2013-01-17 09:25:00,
2013-01-17 03:26:00,39.2,36.5,30.18,NNW,328,4.5,7.5,90,0.00,,CLR,0.00,VWS V14.01,2013-01-17 09:26:00,
2013-01-17 03:27:00,39.2,36.5,30.18,NNW,347,6.0,7.5,90,0.00,,OVC100,0.00,VWS V14.01,2013-01-17 09:27:00,
2013-01-17 03:28:00,39.2,36.5,30.18,North,349,4.5,7.5,90,0.00,,CLR,0.00,VWS V14.01,2013-01-17 09:28:00,
2013-01-17 03:29:00,39.2,36.5,30.19,North,355,3.0,7.5,90,0.00,,CLR,0.00,VWS V14.01,2013-01-17 09:29:00,
2013-01-17 03:30:00,39.1,36.4,30.19,NNW,328,4.5,7.5,90,0.00,,CLR,0.00,VWS V14.01,2013-01-17 09:30:00,
2013-01-17 03:31:00,39.1,36.4,30.19,NNW,344,6.0,7.5,90,0.00,,CLR,0.00,VWS V14.01,2013-01-17 09:31:00,
2013-01-17 03:32:00,39.1,36.4,30.19,NNW,342,7.5,7.5,90,0.00,,OVC100,0.00,VWS V14.01,2013-01-17 09:32:00,
2013-01-17 03:33:00,39.1,36.4,30.19,NNW,336,6.0,9.0,90,0.00,,CLR,0.00,VWS V14.01,2013-01-17 09:33:00,
2013-01-17 03:34:00,39.1,36.4,30.19,North,355,4.5,9.0,90,0.00,,CLR,0.00,VWS V14.01,2013-01-17 09:34:00,
2013-01-17 03:35:00,39.1,36.4,30.19,NNW,340,4.5,7.5,90,0.00,,CLR,0.00,VWS V14.01,2013-01-17 09:35:00,
2013-01-17 03:36:00,39.1,36.4,30.19,North,5,7.5,7.5,90,0.00,,CLR,0.00,VWS V14.01,2013-01-17 09:36:00,
2013-01-17 03:37:00,39.1,36.4,30.19,North,355,4.5,7.5,90,0.00,,OVC100,0.00,VWS V14.01,2013-01-17 09:37:00,
2013-01-17 03:38:00,39.1,36.4,30.19,NNE,17,4.5,7.5,90,0.00,,CLR,0.00,VWS V14.01,2013-01-17 09:38:00,
2013-01-17 03:39:00,39.1,36.4,30.19,NNW,348,6.0,9.0,90,0.00,,CLR,0.00,VWS V14.01,2013-01-17 09:39:00,
2013-01-17 03:40:00,39.1,36.4,30.19,North,350,10.5,10.5,90,0.00,,CLR,0.00,VWS V14.01,2013-01-17 09:40:00,
2013-01-17 03:41:00,39.1,36.4,30.19,North,355,6.0,10.5,90,0.00,,CLR,0.00,VWS V14.01,2013-01-17 09:41:00,
2013-01-17 03:42:00,39.1,36.4,30.19,NNW,348,1.5,10.5,90,0.00,,OVC100,0.00,VWS V14.01,2013-01-17 09:42:00,
2013-01-17 03:43:00,39.1,36.4,30.19,NNW,343,3.0,10.5,90,0.00,,CLR,0.00,VWS V14.01,2013-01-17 09:43:00,
2013-01-17 03:44:00,39.1,36.4,30.19,North,355,3.0,7.5,90,0.00,,CLR,0.00,VWS V14.01,2013-01-17 09:44:00,
2013-01-17 03:45:00,39.0,36.3,30.19,North,9,7.5,9.0,90,0.00,,CLR,0.00,VWS V14.01,2013-01-17 09:45:00,
2013-01-17 03:46:00,39.0,36.3,30.19,North,360,1.5,9.0,90,0.00,,CLR,0.00,VWS V14.01,2013-01-17 09:46:00,
2013-01-17 03:47:00,39.0,36.3,30.19,North,360,0.0,9.0,90,0.00,,OVC100,0.00,VWS V14.01,2013-01-17 09:47:00,
2013-01-17 03:48:00,39.0,36.3,30.19,NNW,333,3.0,9.0,90,0.00,,CLR,0.00,VWS V14.01,2013-01-17 09:48:00,
2013-01-17 03:49:00,39.0,36.3,30.19,North,355,4.5,9.0,90,0.00,,CLR,0.00,VWS V14.01,2013-01-17 09:49:00,
2013-01-17 03:50:00,39.0,36.3,30.19,NNW,338,1.5,9.0,90,0.00,,CLR,0.00,VWS V14.01,2013-01-17 09:50:00,
2013-01-17 03:51:00,38.9,36.2,30.19,NNW,340,3.0,7.5,90,0.00,,CLR,0.00,VWS V14.01,2013-01-17 09:51:00,
2013-01-17 03:52:00,38.9,36.2,30.19,NNW,335,3.0,7.5,90,0.00,,OVC100,0.00,VWS V14.01,2013-01-17 09:52:00,
2013-01-17 03:53:00,38.9,36.2,30.19,North,355,3.0,7.5,90,0.00,,CLR,0.00,VWS V14.01,2013-01-17 09:53:00,
2013-01-17 03:54:00,38.9,36.2,30.19,NNW,344,4.5,7.5,90,0.00,,CLR,0.00,VWS V14.01,2013-01-17 09:54:00,
2013-01-17 03:55:00,38.9,36.2,30.19,NW,309,7.5,7.5,90,0.00,,CLR,0.00,VWS V14.01,2013-01-17 09:55:00,
2013-01-17 03:56:00,38.9,36.2,30.20,North,355,7.5,10.5,90,0.00,,CLR,0.00,VWS V14.01,2013-01-17 09:56:00,
2013-01-17 03:57:00,38.9,36.2,30.20,NNW,340,6.0,10.5,90,0.00,,OVC100,0.00,VWS V14.01,2013-01-17 09:57:00,
2013-01-17 03:58:00,38.9,36.2,30.20,NNW,340,1.5,10.5,90,0.00,,CLR,0.00,VWS V14.01,2013-01-17 09:58:00,
2013-01-17 03:59:00,38.9,36.2,30.20,NNW,344,4.5,7.5,90,0.00,,CLR,0.00,VWS V14.01,2013-01-17 09:59:00,
2013-01-17 04:00:00,38.9,36.2,30.20,WNW,302,7.5,7.5,90,0.00,,CLR,0.00,VWS V14.01,2013-01-17 10:00:00,
2013-01-17 04:01:00,38.9,36.2,30.20,NW,325,9.0,10.5,90,0.00,,CLR,0.00,VWS V14.01,2013-01-17 10:01:00,
2013-01-17 04:02:00,38.9,36.2,30.20,North,355,7.5,10.5,90,0.00,,FEW033,0.00,VWS V14.01,2013-01-17 10:02:00,
2013-01-17 04:03:00,38.9,36.2,30.20,North,355,6.0,12.0,90,0.00,,CLR,0.00,VWS V14.01,2013-01-17 10:03:00,
2013-01-17 04:04:00,38.9,36.2,30.20,North,360,7.5,12.0,90,0.00,,CLR,0.00,VWS V14.01,2013-01-17 10:04:00,
2013-01-17 04:05:00,38.9,36.2,30.20,NW,323,6.0,10.5,90,0.00,,CLR,0.00,VWS V14.01,2013-01-17 10:05:00,
2013-01-17 04:06:00,38.9,36.2,30.20,North,360,9.0,10.5,90,0.00,,CLR,0.00,VWS V14.01,2013-01-17 10:06:00,
2013-01-17 04:07:00,38.9,36.2,30.20,NNE,21,4.5,10.5,90,0.00,,FEW033,0.00,VWS V14.01,2013-01-17 10:07:00,
2013-01-17 04:08:00,38.9,36.2,30.20,NW,325,4.5,10.5,90,0.00,,CLR,0.00,VWS V14.01,2013-01-17 10:08:00,
2013-01-17 04:09:00,38.9,36.2,30.20,North,349,4.5,10.5,90,0.00,,CLR,0.00,VWS V14.01,2013-01-17 10:09:00,
2013-01-17 04:10:00,38.9,36.2,30.20,NW,321,7.5,9.0,90,0.00,,CLR,0.00,VWS V14.01,2013-01-17 10:10:00,
2013-01-17 04:11:00,38.8,36.1,30.20,NNW,330,6.0,12.0,90,0.00,,CLR,0.00,VWS V14.01,2013-01-17 10:11:00,
2013-01-17 04:12:00,38.8,36.1,30.20,NW,320,6.0,12.0,90,0.00,,FEW033,0.00,VWS V14.01,2013-01-17 10:12:00,
2013-01-17 04:13:00,38.9,36.2,30.20,NNW,336,6.0,13.5,90,0.00,,CLR,0.00,VWS V14.01,2013-01-17 10:13:00,
2013-01-17 04:14:00,38.9,36.2,30.20,North,350,3.0,13.5,90,0.00,,CLR,0.00,VWS V14.01,2013-01-17 10:14:00,
2013-01-17 04:15:00,38.9,36.2,30.20,NW,324,4.5,13.5,90,0.00,,CLR,0.00,VWS V14.01,2013-01-17 10:15:00,
2013-01-17 04:16:00,38.9,36.2,30.20,NNW,344,6.0,9.0,90,0.00,,CLR,0.00,VWS V14.01,2013-01-17 10:16:00,
2013-01-17 04:17:00,38.9,36.2,30.20,NW,305,6.0,9.0,90,0.00,,FEW033,0.00,VWS V14.01,2013-01-17 10:17:00,
2013-01-17 04:18:00,38.9,36.2,30.20,North,360,6.0,7.5,90,0.00,,CLR,0.00,VWS V14.01,2013-01-17 10:18:00,
2013-01-17 04:19:00,38.8,36.1,30.20,NNW,337,4.5,7.5,90,0.00,,CLR,0.00,VWS V14.01,2013-01-17 10:19:00,
2013-01-17 04:20:00,38.8,36.1,30.20,NNW,328,6.0,12.0,90,0.00,,CLR,0.00,VWS V14.01,2013-01-17 10:20:00,
2013-01-17 04:21:00,38.8,36.1,30.20,NNW,345,3.0,12.0,90,0.00,,CLR,0.00,VWS V14.01,2013-01-17 10:21:00,
2013-01-17 04:22:00,38.8,36.1,30.20,NNW,327,3.0,12.0,90,0.00,,FEW033,0.00,VWS V14.01,2013-01-17 10:22:00,
2013-01-17 04:23:00,38.8,36.4,30.20,NNW,330,1.5,10.5,91,0.00,,CLR,0.00,VWS V14.01,2013-01-17 10:23:00,
2013-01-17 04:24:00,38.8,36.4,30.20,NW,319,0.0,4.5,91,0.00,,CLR,0.00,VWS V14.01,2013-01-17 10:24:00,
2013-01-17 04:25:00,38.8,36.4,30.20,NNW,329,1.5,6.0,91,0.00,,CLR,0.00,VWS V14.01,2013-01-17 10:25:00,
2013-01-17 04:26:00,38.7,36.3,30.20,North,355,0.0,6.0,91,0.00,,CLR,0.00,VWS V14.01,2013-01-17 10:26:00,
2013-01-17 04:27:00,38.7,36.3,30.20,North,355,0.0,6.0,91,0.00,,FEW033,0.00,VWS V14.01,2013-01-17 10:27:00,
2013-01-17 04:28:00,38.6,36.2,30.20,NW,313,6.0,6.0,91,0.00,,CLR,0.00,VWS V14.01,2013-01-17 10:28:00,
2013-01-17 04:29:00,38.6,36.2,30.21,NW,315,3.0,9.0,91,0.00,,CLR,0.00,VWS V14.01,2013-01-17 10:29:00,
2013-01-17 04:30:00,38.5,36.1,30.21,NW,308,6.0,9.0,91,0.00,,CLR,0.00,VWS V14.01,2013-01-17 10:30:00,
2013-01-17 04:31:00,38.5,36.1,30.21,NW,312,3.0,7.5,91,0.00,,CLR,0.00,VWS V14.01,2013-01-17 10:31:00,
2013-01-17 04:32:00,38.5,36.1,30.21,NW,312,1.5,7.5,91,0.00,,FEW033,0.00,VWS V14.01,2013-01-17 10:32:00,
2013-01-17 04:33:00,38.5,36.4,30.21,North,5,4.5,10.5,92,0.00,,CLR,0.00,VWS V14.01,2013-01-17 10:33:00,
2013-01-17 04:34:00,38.5,36.1,30.21,NNW,328,6.0,10.5,91,0.00,,CLR,0.00,VWS V14.01,2013-01-17 10:34:00,
2013-01-17 04:35:00,38.4,36.0,30.21,NW,312,3.0,10.5,91,0.00,,CLR,0.00,VWS V14.01,2013-01-17 10:35:00,
2013-01-17 04:36:00,38.4,36.0,30.21,North,5,6.0,9.0,91,0.00,,CLR,0.00,VWS V14.01,2013-01-17 10:36:00,
2013-01-17 04:37:00,38.4,36.0,30.21,NNW,335,4.5,9.0,91,0.00,,FEW033,0.00,VWS V14.01,2013-01-17 10:37:00,
2013-01-17 04:38:00,38.4,36.0,30.21,NNW,346,1.5,10.5,91,0.00,,CLR,0.00,VWS V14.01,2013-01-17 10:38:00,
2013-01-17 04:39:00,38.4,36.0,30.21,NW,310,6.0,10.5,91,0.00,,CLR,0.00,VWS V14.01,2013-01-17 10:39:00,
2013-01-17 04:40:00,38.4,36.0,30.21,NNW,337,4.5,9.0,91,0.00,,CLR,0.00,VWS V14.01,2013-01-17 10:40:00,
2013-01-17 04:41:00,38.3,36.2,30.21,NNE,22,9.0,9.0,92,0.00,,CLR,0.00,VWS V14.01,2013-01-17 10:41:00,
2013-01-17 04:42:00,38.4,36.3,30.21,NW,322,7.5,9.0,92,0.00,,BKN009,0.00,VWS V14.01,2013-01-17 10:42:00,
2013-01-17 04:43:00,38.3,36.2,30.21,NNW,328,7.5,13.5,92,0.00,,CLR,0.00,VWS V14.01,2013-01-17 10:43:00,
2013-01-17 04:44:00,38.3,36.2,30.21,NW,326,3.0,13.5,92,0.00,,CLR,0.00,VWS V14.01,2013-01-17 10:44:00,
2013-01-17 04:45:00,38.3,36.2,30.21,NNW,334,1.5,13.5,92,0.00,,CLR,0.00,VWS V14.01,2013-01-17 10:45:00,
2013-01-17 04:46:00,38.3,36.2,30.21,NNW,333,6.0,9.0,92,0.00,,CLR,0.00,VWS V14.01,2013-01-17 10:46:00,
2013-01-17 04:47:00,38.3,36.2,30.21,NNW,329,6.0,7.5,92,0.00,,BKN009,0.00,VWS V14.01,2013-01-17 10:47:00,
2013-01-17 04:48:00,38.3,36.2,30.21,NNW,330,4.5,9.0,92,0.00,,CLR,0.00,VWS V14.01,2013-01-17 10:48:00,
2013-01-17 04:49:00,38.3,36.2,30.21,NW,322,0.0,9.0,92,0.00,,CLR,0.00,VWS V14.01,2013-01-17 10:49:00,
2013-01-17 04:50:00,38.3,36.2,30.21,NNW,348,3.0,7.5,92,0.00,,CLR,0.00,VWS V14.01,2013-01-17 10:50:00,
2013-01-17 04:51:00,38.2,36.1,30.21,NW,323,1.5,6.0,92,0.00,,CLR,0.00,VWS V14.01,2013-01-17 10:51:00,
2013-01-17 04:52:00,38.2,36.1,30.21,NW,323,0.0,6.0,92,0.00,,BKN009,0.00,VWS V14.01,2013-01-17 10:52:00,
2013-01-17 04:53:00,38.2,36.1,30.21,NNW,331,4.5,7.5,92,0.00,,CLR,0.00,VWS V14.01,2013-01-17 10:53:00,
2013-01-17 04:54:00,38.2,36.1,30.21,NNW,338,4.5,7.5,92,0.00,,CLR,0.00,VWS V14.01,2013-01-17 10:54:00,
2013-01-17 04:55:00,38.2,36.1,30.21,NNW,348,3.0,6.0,92,0.00,,CLR,0.00,VWS V14.01,2013-01-17 10:55:00,
2013-01-17 04:56:00,38.1,36.0,30.21,NNW,343,3.0,6.0,92,0.00,,CLR,0.00,VWS V14.01,2013-01-17 10:56:00,
2013-01-17 04:57:00,38.1,36.0,30.21,NNW,340,1.5,6.0,92,0.00,,BKN009,0.00,VWS V14.01,2013-01-17 10:57:00,
2013-01-17 04:58:00,38.1,36.0,30.21,NW,319,1.5,6.0,92,0.00,,CLR,0.00,VWS V14.01,2013-01-17 10:58:00,
2013-01-17 04:59:00,38.1,36.0,30.21,NNW,333,0.0,4.5,92,0.00,,CLR,0.00,VWS V14.01,2013-01-17 10:59:00,
2013-01-17 05:00:00,38.0,35.9,30.21,NNW,333,1.5,4.5,92,0.00,,CLR,0.00,VWS V14.01,2013-01-17 11:00:00,
2013-01-17 05:01:00,38.0,35.9,30.21,NNE,15,6.0,6.0,92,0.00,,CLR,0.00,VWS V14.01,2013-01-17 11:01:00,
2013-01-17 05:02:00,38.0,35.9,30.21,NNW,337,6.0,6.0,92,0.00,,BKN009,0.00,VWS V14.01,2013-01-17 11:02:00,
2013-01-17 05:03:00,38.0,35.9,30.21,NNW,342,1.5,7.5,92,0.00,,CLR,0.00,VWS V14.01,2013-01-17 11:03:00,
2013-01-17 05:04:00,38.0,35.9,30.21,NNW,342,1.5,7.5,92,0.00,,CLR,0.00,VWS V14.01,2013-01-17 11:04:00,
2013-01-17 05:05:00,37.9,35.8,30.21,NW,321,0.0,4.5,92,0.00,,CLR,0.00,VWS V14.01,2013-01-17 11:05:00,
2013-01-17 05:06:00,37.9,35.8,30.21,NW,322,0.0,3.0,92,0.00,,CLR,0.00,VWS V14.01,2013-01-17 11:06:00,
2013-01-17 05:07:00,37.9,35.8,30.21,NW,322,0.0,3.0,92,0.00,,BKN009,0.00,VWS V14.01,2013-01-17 11:07:00,
2013-01-17 05:08:00,37.9,36.1,30.22,NW,325,3.0,6.0,93,0.00,,CLR,0.00,VWS V14.01,2013-01-17 11:08:00,
2013-01-17 05:09:00,37.9,36.1,30.21,NW,323,4.5,6.0,93,0.00,,CLR,0.00,VWS V14.01,2013-01-17 11:09:00,
2013-01-17 05:10:00,37.9,36.1,30.22,NW,322,1.5,6.0,93,0.00,,CLR,0.00,VWS V14.01,2013-01-17 11:10:00,
2013-01-17 05:11:00,37.9,36.1,30.21,NW,311,0.0,4.5,93,0.00,,CLR,0.00,VWS V14.01,2013-01-17 11:11:00,
2013-01-17 05:12:00,37.9,36.1,30.22,NW,311,0.0,4.5,93,0.00,,BKN009,0.00,VWS V14.01,2013-01-17 11:12:00,
2013-01-17 05:13:00,37.9,36.1,30.22,NW,311,0.0,1.5,93,0.00,,CLR,0.00,VWS V14.01,2013-01-17 11:13:00,
2013-01-17 05:14:00,37.9,36.1,30.22,NNW,332,1.5,3.0,93,0.00,,CLR,0.00,VWS V14.01,2013-01-17 11:14:00,
2013-01-17 05:15:00,37.8,36.0,30.22,NW,317,3.0,4.5,93,0.00,,CLR,0.00,VWS V14.01,2013-01-17 11:15:00,
2013-01-17 05:16:00,37.8,36.0,30.22,NNW,333,1.5,4.5,93,0.00,,CLR,0.00,VWS V14.01,2013-01-17 11:16:00,
2013-01-17 05:17:00,37.8,36.0,30.22,NNW,333,1.5,4.5,93,0.00,,BKN009,0.00,VWS V14.01,2013-01-17 11:17:00,
2013-01-17 05:18:00,37.8,36.0,30.22,North,355,3.0,3.0,93,0.00,,CLR,0.00,VWS V14.01,2013-01-17 11:18:00,
2013-01-17 05:19:00,37.8,36.0,30.22,NW,315,1.5,3.0,93,0.00,,CLR,0.00,VWS V14.01,2013-01-17 11:19:00,
2013-01-17 05:20:00,37.8,36.0,30.22,North,355,3.0,3.0,93,0.00,,CLR,0.00,VWS V14.01,2013-01-17 11:20:00,
2013-01-17 05:21:00,37.8,36.0,30.22,North,355,3.0,6.0,93,0.00,,CLR,0.00,VWS V14.01,2013-01-17 11:21:00,
2013-01-17 05:22:00,37.8,36.0,30.22,NW,325,3.0,6.0,93,0.00,,BKN009,0.00,VWS V14.01,2013-01-17 11:22:00,
2013-01-17 05:23:00,37.8,36.0,30.22,NNW,342,1.5,6.0,93,0.00,,CLR,0.00,VWS V14.01,2013-01-17 11:23:00,
2013-01-17 05:24:00,37.7,35.9,30.22,NNW,337,1.5,6.0,93,0.00,,CLR,0.00,VWS V14.01,2013-01-17 11:24:00,
2013-01-17 05:25:00,37.7,35.9,30.22,NNW,345,3.0,6.0,93,0.00,,CLR,0.00,VWS V14.01,2013-01-17 11:25:00,
2013-01-17 05:26:00,37.7,35.9,30.22,North,349,3.0,6.0,93,0.00,,CLR,0.00,VWS V14.01,2013-01-17 11:26:00,
2013-01-17 05:27:00,37.7,35.9,30.22,NNW,339,0.0,6.0,93,0.00,,BKN009,0.00,VWS V14.01,2013-01-17 11:27:00,
2013-01-17 05:28:00,37.7,35.9,30.22,NNW,341,3.0,6.0,93,0.00,,CLR,0.00,VWS V14.01,2013-01-17 11:28:00,
2013-01-17 05:29:00,37.7,35.9,30.22,North,349,0.0,6.0,93,0.00,,CLR,0.00,VWS V14.01,2013-01-17 11:29:00,
2013-01-17 05:30:00,37.7,35.9,30.22,NNW,348,1.5,6.0,93,0.00,,CLR,0.00,VWS V14.01,2013-01-17 11:30:00,
2013-01-17 05:31:00,37.7,35.9,30.22,NW,323,0.0,6.0,93,0.00,,CLR,0.00,VWS V14.01,2013-01-17 11:31:00,
2013-01-17 05:32:00,37.7,35.9,30.22,NW,323,0.0,6.0,93,0.00,,BKN009,0.00,VWS V14.01,2013-01-17 11:32:00,
2013-01-17 05:33:00,37.7,35.9,30.22,NW,319,3.0,6.0,93,0.00,,CLR,0.00,VWS V14.01,2013-01-17 11:33:00,
2013-01-17 05:34:00,37.7,35.9,30.22,North,360,0.0,6.0,93,0.00,,CLR,0.00,VWS V14.01,2013-01-17 11:34:00,
2013-01-17 05:35:00,37.7,35.9,30.22,NW,323,0.0,6.0,93,0.00,,CLR,0.00,VWS V14.01,2013-01-17 11:35:00,
2013-01-17 05:36:00,37.7,35.9,30.22,NNW,344,1.5,6.0,93,0.00,,CLR,0.00,VWS V14.01,2013-01-17 11:36:00,
2013-01-17 05:37:00,37.7,35.9,30.22,NNW,344,1.5,6.0,93,0.00,,BKN009,0.00,VWS V14.01,2013-01-17 11:37:00,
2013-01-17 05:38:00,37.7,35.9,30.22,NNW,344,1.5,6.0,93,0.00,,CLR,0.00,VWS V14.01,2013-01-17 11:38:00,
2013-01-17 05:39:00,37.7,35.9,30.22,NW,316,1.5,4.5,93,0.00,,CLR,0.00,VWS V14.01,2013-01-17 11:39:00,
2013-01-17 05:40:00,37.7,35.9,30.23,NW,321,0.0,4.5,93,0.00,,CLR,0.00,VWS V14.01,2013-01-17 11:40:00,
2013-01-17 05:41:00,37.7,35.9,30.23,NW,321,1.5,3.0,93,0.00,,CLR,0.00,VWS V14.01,2013-01-17 11:41:00,
2013-01-17 05:42:00,37.7,35.9,30.23,NW,321,0.0,3.0,93,0.00,,BKN009,0.00,VWS V14.01,2013-01-17 11:42:00,
2013-01-17 05:43:00,37.7,36.1,30.23,NNW,329,0.0,6.0,94,0.00,,CLR,0.00,VWS V14.01,2013-01-17 11:43:00,
2013-01-17 05:44:00,37.8,36.2,30.23,North,350,3.0,6.0,94,0.00,,CLR,0.00,VWS V14.01,2013-01-17 11:44:00,
2013-01-17 05:45:00,37.7,36.1,30.23,NNW,338,0.0,3.0,94,0.00,,CLR,0.00,VWS V14.01,2013-01-17 11:45:00,
2013-01-17 05:46:00,37.8,36.2,30.23,NNW,338,0.0,3.0,94,0.00,,CLR,0.00,VWS V14.01,2013-01-17 11:46:00,
2013-01-17 05:47:00,37.8,36.2,30.22,NNW,333,1.5,3.0,94,0.00,,BKN009,0.00,VWS V14.01,2013-01-17 11:47:00,
2013-01-17 05:48:00,37.7,35.9,30.23,NNW,331,0.0,3.0,93,0.00,,CLR,0.00,VWS V14.01,2013-01-17 11:48:00,
2013-01-17 05:49:00,37.7,35.9,30.23,NNW,331,0.0,1.5,93,0.00,,CLR,0.00,VWS V14.01,2013-01-17 11:49:00,
2013-01-17 05:50:00,37.7,35.9,30.23,NNE,17,1.5,4.5,93,0.00,,CLR,0.00,VWS V14.01,2013-01-17 11:50:00,
2013-01-17 05:51:00,37.7,36.1,30.23,North,360,1.5,4.5,94,0.00,,CLR,0.00,VWS V14.01,2013-01-17 11:51:00,
2013-01-17 05:52:00,37.7,36.1,30.23,North,360,1.5,4.5,94,0.00,,BKN009,0.00,VWS V14.01,2013-01-17 11:52:00,
2013-01-17 05:53:00,37.7,36.1,30.23,North,355,1.5,3.0,94,0.00,,CLR,0.00,VWS V14.01,2013-01-17 11:53:00,
2013-01-17 05:54:00,37.7,36.1,30.23,North,355,0.0,3.0,94,0.00,,CLR,0.00,VWS V14.01,2013-01-17 11:54:00,
2013-01-17 05:55:00,37.6,36.0,30.24,North,355,0.0,3.0,94,0.00,,CLR,0.00,VWS V14.01,2013-01-17 11:55:00,
2013-01-17 05:56:00,37.7,36.1,30.24,North,355,0.0,0.0,94,0.00,,CLR,0.00,VWS V14.01,2013-01-17 11:56:00,
2013-01-17 05:57:00,37.7,36.1,30.24,North,355,0.0,0.0,94,0.00,,BKN009,0.00,VWS V14.01,2013-01-17 11:57:00,
2013-01-17 05:58:00,37.6,36.0,30.24,North,9,0.0,4.5,94,0.00,,CLR,0.00,VWS V14.01,2013-01-17 11:58:00,
2013-01-17 05:59:00,37.6,36.0,30.24,North,9,0.0,4.5,94,0.00,,CLR,0.00,VWS V14.01,2013-01-17 11:59:00,
2013-01-17 06:00:00,37.6,36.0,30.24,North,9,0.0,3.0,94,0.00,,CLR,0.00,VWS V14.01,2013-01-17 12:00:00,
2013-01-17 06:01:00,37.6,36.0,30.23,North,9,0.0,3.0,94,0.00,,CLR,0.00,VWS V14.01,2013-01-17 12:01:00,
2013-01-17 06:02:00,37.5,35.9,30.23,North,9,0.0,3.0,94,0.00,,BKN009,0.00,VWS V14.01,2013-01-17 12:02:00,
2013-01-17 06:03:00,37.5,35.9,30.23,North,9,0.0,3.0,94,0.00,,CLR,0.00,VWS V14.01,2013-01-17 12:03:00,
2013-01-17 06:04:00,37.5,35.9,30.23,North,9,0.0,3.0,94,0.00,,CLR,0.00,VWS V14.01,2013-01-17 12:04:00,
2013-01-17 06:05:00,37.5,35.9,30.23,North,9,0.0,3.0,94,0.00,,CLR,0.00,VWS V14.01,2013-01-17 12:05:00,
2013-01-17 06:06:00,37.4,35.8,30.24,NNW,345,1.5,3.0,94,0.00,,CLR,0.00,VWS V14.01,2013-01-17 12:06:00,
2013-01-17 06:07:00,37.4,35.8,30.24,NNW,345,0.0,3.0,94,0.00,,BKN009,0.00,VWS V14.01,2013-01-17 12:07:00,
2013-01-17 06:08:00,37.4,35.8,30.24,NNW,345,0.0,3.0,94,0.00,,CLR,0.00,VWS V14.01,2013-01-17 12:08:00,
2013-01-17 06:09:00,37.4,35.8,30.24,NNW,345,0.0,1.5,94,0.00,,CLR,0.00,VWS V14.01,2013-01-17 12:09:00,
2013-01-17 06:10:00,37.3,35.7,30.24,NNW,345,0.0,0.0,94,0.00,,CLR,0.00,VWS V14.01,2013-01-17 12:10:00,
2013-01-17 06:11:00,37.3,35.7,30.23,NNW,345,0.0,0.0,94,0.00,,CLR,0.00,VWS V14.01,2013-01-17 12:11:00,
2013-01-17 06:12:00,37.3,35.7,30.23,NNW,345,0.0,0.0,94,0.00,,BKN009,0.00,VWS V14.01,2013-01-17 12:12:00,
2013-01-17 06:13:00,37.3,35.7,30.23,NNW,348,0.0,4.5,94,0.00,,CLR,0.00,VWS V14.01,2013-01-17 12:13:00,
2013-01-17 06:14:00,37.3,35.7,30.23,NNW,348,0.0,4.5,94,0.00,,CLR,0.00,VWS V14.01,2013-01-17 12:14:00,
2013-01-17 06:15:00,37.3,35.7,30.23,NNW,348,1.5,4.5,94,0.00,,CLR,0.00,VWS V14.01,2013-01-17 12:15:00,
2013-01-17 06:16:00,37.3,35.7,30.23,North,355,0.0,3.0,94,0.00,,CLR,0.00,VWS V14.01,2013-01-17 12:16:00,
2013-01-17 06:17:00,37.3,35.7,30.23,North,355,0.0,3.0,94,0.00,,BKN009,0.00,VWS V14.01,2013-01-17 12:17:00,
2013-01-17 06:18:00,37.3,35.7,30.23,North,355,0.0,3.0,94,0.00,,CLR,0.00,VWS V14.01,2013-01-17 12:18:00,
2013-01-17 06:19:00,37.2,35.6,30.24,North,355,0.0,1.5,94,0.00,,CLR,0.00,VWS V14.01,2013-01-17 12:19:00,
2013-01-17 06:20:00,37.2,35.6,30.24,North,355,0.0,1.5,94,0.00,,CLR,0.00,VWS V14.01,2013-01-17 12:20:00,
2013-01-17 06:21:00,37.2,35.6,30.24,North,355,0.0,1.5,94,0.00,,CLR,0.00,VWS V14.01,2013-01-17 12:21:00,
2013-01-17 06:22:00,37.2,35.6,30.24,North,355,0.0,1.5,94,0.00,,BKN009,0.00,VWS V14.01,2013-01-17 12:22:00,
2013-01-17 06:23:00,37.1,35.5,30.24,North,355,0.0,0.0,94,0.00,,CLR,0.00,VWS V14.01,2013-01-17 12:23:00,
2013-01-17 06:24:00,37.1,35.5,30.24,North,355,0.0,0.0,94,0.00,,CLR,0.00,VWS V14.01,2013-01-17 12:24:00,
2013-01-17 06:25:00,37.1,35.5,30.24,North,355,0.0,1.5,94,0.00,,CLR,0.00,VWS V14.01,2013-01-17 12:25:00,
2013-01-17 06:26:00,37.1,35.5,30.24,North,355,0.0,1.5,94,0.00,,CLR,0.00,VWS V14.01,2013-01-17 12:26:00,
2013-01-17 06:27:00,37.1,35.5,30.24,North,355,0.0,1.5,94,0.00,,BKN009,0.00,VWS V14.01,2013-01-17 12:27:00,
2013-01-17 06:28:00,37.0,35.4,30.24,North,355,0.0,0.0,94,0.00,,CLR,0.00,VWS V14.01,2013-01-17 12:28:00,
2013-01-17 06:29:00,37.0,35.4,30.24,North,355,0.0,0.0,94,0.00,,CLR,0.00,VWS V14.01,2013-01-17 12:29:00,
2013-01-17 06:30:00,37.0,35.4,30.25,North,355,3.0,4.5,94,0.00,,CLR,0.00,VWS V14.01,2013-01-17 12:30:00,
2013-01-17 06:31:00,36.9,35.3,30.25,North,355,0.0,4.5,94,0.00,,CLR,0.00,VWS V14.01,2013-01-17 12:31:00,
2013-01-17 06:32:00,36.9,35.3,30.25,North,355,0.0,4.5,94,0.00,,BKN009,0.00,VWS V14.01,2013-01-17 12:32:00,
2013-01-17 06:33:00,36.9,35.3,30.25,North,355,0.0,4.5,94,0.00,,CLR,0.00,VWS V14.01,2013-01-17 12:33:00,
2013-01-17 06:34:00,36.9,35.3,30.25,North,355,0.0,4.5,94,0.00,,CLR,0.00,VWS V14.01,2013-01-17 12:34:00,
2013-01-17 06:35:00,36.9,35.3,30.25,North,355,0.0,0.0,94,0.00,,CLR,0.00,VWS V14.01,2013-01-17 12:35:00,
2013-01-17 06:36:00,36.9,35.3,30.25,North,355,0.0,0.0,94,0.00,,CLR,0.00,VWS V14.01,2013-01-17 12:36:00,
2013-01-17 06:37:00,36.9,35.3,30.25,North,355,0.0,0.0,94,0.00,,BKN009,0.00,VWS V14.01,2013-01-17 12:37:00,
2013-01-17 06:38:00,36.9,35.3,30.25,North,355,0.0,0.0,94,0.00,,CLR,0.00,VWS V14.01,2013-01-17 12:38:00,
2013-01-17 06:39:00,36.9,35.3,30.25,North,355,0.0,1.5,94,0.00,,CLR,0.00,VWS V14.01,2013-01-17 12:39:00,
2013-01-17 06:40:00,36.8,35.2,30.25,North,355,1.5,1.5,94,0.00,,CLR,0.00,VWS V14.01,2013-01-17 12:40:00,
2013-01-17 06:41:00,36.9,35.3,30.25,North,355,1.5,3.0,94,0.00,,CLR,0.00,VWS V14.01,2013-01-17 12:41:00,
2013-01-17 06:42:00,36.8,35.2,30.25,NNW,344,3.0,3.0,94,0.00,,BKN009,0.00,VWS V14.01,2013-01-17 12:42:00,
2013-01-17 06:43:00,36.8,35.2,30.25,NNW,344,0.0,3.0,94,0.00,,CLR,0.00,VWS V14.01,2013-01-17 12:43:00,
2013-01-17 06:44:00,36.8,35.2,30.25,NNW,344,1.5,3.0,94,0.00,,CLR,0.00,VWS V14.01,2013-01-17 12:44:00,
2013-01-17 06:45:00,36.9,35.3,30.25,NNW,344,0.0,3.0,94,0.00,,CLR,0.00,VWS V14.01,2013-01-17 12:45:00,
2013-01-17 06:46:00,36.8,35.2,30.25,NNW,344,0.0,3.0,94,0.00,,CLR,0.00,VWS V14.01,2013-01-17 12:46:00,
2013-01-17 06:47:00,36.8,35.2,30.25,NNW,344,0.0,3.0,94,0.00,,BKN009,0.00,VWS V14.01,2013-01-17 12:47:00,
2013-01-17 06:48:00,36.9,35.3,30.25,NNW,344,0.0,0.0,94,0.00,,CLR,0.00,VWS V14.01,2013-01-17 12:48:00,
2013-01-17 06:49:00,36.8,35.2,30.26,NNW,344,0.0,0.0,94,0.00,,CLR,0.00,VWS V14.01,2013-01-17 12:49:00,
2013-01-17 06:50:00,36.8,35.2,30.26,NNW,344,0.0,1.5,94,0.00,,CLR,0.00,VWS V14.01,2013-01-17 12:50:00,
2013-01-17 06:51:00,36.8,35.2,30.26,NNW,344,0.0,1.5,94,0.00,,CLR,0.00,VWS V14.01,2013-01-17 12:51:00,
2013-01-17 06:52:00,36.8,35.2,30.26,NNW,344,0.0,1.5,94,0.00,,BKN009,0.00,VWS V14.01,2013-01-17 12:52:00,
2013-01-17 06:53:00,36.8,35.2,30.26,North,355,0.0,3.0,94,0.00,,CLR,0.00,VWS V14.01,2013-01-17 12:53:00,
2013-01-17 06:54:00,36.8,35.2,30.26,North,355,0.0,3.0,94,0.00,,CLR,0.00,VWS V14.01,2013-01-17 12:54:00,
2013-01-17 06:55:00,36.8,35.2,30.26,North,355,0.0,3.0,94,0.00,,CLR,0.00,VWS V14.01,2013-01-17 12:55:00,
2013-01-17 06:56:00,36.8,35.2,30.25,North,355,0.0,1.5,94,0.00,,CLR,0.00,VWS V14.01,2013-01-17 12:56:00,
2013-01-17 06:57:00,36.8,35.2,30.25,North,355,0.0,1.5,94,0.00,,BKN009,0.00,VWS V14.01,2013-01-17 12:57:00,
2013-01-17 06:58:00,36.7,35.1,30.26,North,5,0.0,3.0,94,0.00,,CLR,0.00,VWS V14.01,2013-01-17 12:58:00,
2013-01-17 06:59:00,36.7,35.1,30.26,North,360,3.0,4.5,94,0.00,,CLR,0.00,VWS V14.01,2013-01-17 12:59:00,
2013-01-17 07:00:00,36.7,35.1,30.26,NNE,13,0.0,4.5,94,0.00,,CLR,0.00,VWS V14.01,2013-01-17 13:00:00,
2013-01-17 07:01:00,36.6,35.0,30.26,NNE,13,0.0,3.0,94,0.00,,CLR,0.00,VWS V14.01,2013-01-17 13:01:00,
2013-01-17 07:02:00,36.6,35.0,30.26,NNE,13,0.0,3.0,94,0.00,,BKN006,0.00,VWS V14.01,2013-01-17 13:02:00,
2013-01-17 07:03:00,36.6,35.0,30.26,NNE,13,0.0,3.0,94,0.00,,CLR,0.00,VWS V14.01,2013-01-17 13:03:00,
2013-01-17 07:04:00,36.6,35.0,30.26,NNE,13,0.0,1.5,94,0.00,,CLR,0.00,VWS V14.01,2013-01-17 13:04:00,
2013-01-17 07:05:00,36.6,35.0,30.26,NNW,344,3.0,3.0,94,0.00,,CLR,0.00,VWS V14.01,2013-01-17 13:05:00,
2013-01-17 07:06:00,36.6,35.0,30.26,North,349,1.5,4.5,94,0.00,,CLR,0.00,VWS V14.01,2013-01-17 13:06:00,
2013-01-17 07:07:00,36.6,35.0,30.26,North,349,1.5,4.5,94,0.00,,BKN006,0.00,VWS V14.01,2013-01-17 13:07:00,
2013-01-17 07:08:00,36.6,35.0,30.25,North,5,1.5,4.5,94,0.00,,CLR,0.00,VWS V14.01,2013-01-17 13:08:00,
2013-01-17 07:09:00,36.6,35.0,30.25,North,5,0.0,4.5,94,0.00,,CLR,0.00,VWS V14.01,2013-01-17 13:09:00,
2013-01-17 07:10:00,36.6,35.0,30.25,NNE,15,1.5,6.0,94,0.00,,CLR,0.00,VWS V14.01,2013-01-17 13:10:00,
2013-01-17 07:11:00,36.6,35.0,30.26,North,355,1.5,6.0,94,0.00,,CLR,0.00,VWS V14.01,2013-01-17 13:11:00,
2013-01-17 07:12:00,36.6,35.0,30.26,North,355,0.0,6.0,94,0.00,,SCT006,0.00,VWS V14.01,2013-01-17 13:12:00,
2013-01-17 07:13:00,36.6,35.0,30.26,North,355,1.5,3.0,94,0.00,,CLR,0.00,VWS V14.01,2013-01-17 13:13:00,
2013-01-17 07:14:00,36.6,35.0,30.26,North,355,0.0,3.0,94,0.00,,CLR,0.00,VWS V14.01,2013-01-17 13:14:00,
2013-01-17 07:15:00,36.6,35.0,30.26,North,355,0.0,3.0,94,0.00,,CLR,0.00,VWS V14.01,2013-01-17 13:15:00,
2013-01-17 07:16:00,36.6,35.0,30.26,NNW,346,3.0,3.0,94,0.00,,CLR,0.00,VWS V14.01,2013-01-17 13:16:00,
2013-01-17 07:17:00,36.6,35.0,30.26,NNW,346,3.0,3.0,94,0.00,,SCT006,0.00,VWS V14.01,2013-01-17 13:17:00,
2013-01-17 07:18:00,36.6,35.0,30.26,NNW,346,0.0,3.0,94,0.00,,CLR,0.00,VWS V14.01,2013-01-17 13:18:00,
2013-01-17 07:19:00,36.5,34.9,30.25,NNW,346,0.0,1.5,94,0.00,,CLR,0.00,VWS V14.01,2013-01-17 13:19:00,
2013-01-17 07:20:00,36.5,34.9,30.26,NNW,346,0.0,1.5,94,0.00,,CLR,0.00,VWS V14.01,2013-01-17 13:20:00,
2013-01-17 07:21:00,36.5,34.9,30.26,NNW,346,0.0,1.5,94,0.00,,CLR,0.00,VWS V14.01,2013-01-17 13:21:00,
2013-01-17 07:22:00,36.5,34.9,30.26,NNW,346,0.0,1.5,94,0.00,,SCT006,0.00,VWS V14.01,2013-01-17 13:22:00,
2013-01-17 07:23:00,36.5,34.9,30.26,North,355,3.0,3.0,94,0.00,,CLR,0.00,VWS V14.01,2013-01-17 13:23:00,
2013-01-17 07:24:00,36.5,34.9,30.26,NNW,344,1.5,4.5,94,0.00,,CLR,0.00,VWS V14.01,2013-01-17 13:24:00,
2013-01-17 07:25:00,36.5,34.9,30.26,NNW,347,1.5,4.5,94,0.00,,CLR,0.00,VWS V14.01,2013-01-17 13:25:00,
2013-01-17 07:26:00,36.5,34.9,30.26,NNW,347,1.5,4.5,94,0.00,,CLR,0.00,VWS V14.01,2013-01-17 13:26:00,
2013-01-17 07:27:00,36.5,34.9,30.26,NNW,347,1.5,4.5,94,0.00,,SCT006,0.00,VWS V14.01,2013-01-17 13:27:00,
2013-01-17 07:28:00,36.5,34.9,30.26,North,349,1.5,1.5,94,0.00,,CLR,0.00,VWS V14.01,2013-01-17 13:28:00,
2013-01-17 07:29:00,36.5,34.9,30.26,North,349,0.0,3.0,94,0.00,,CLR,0.00,VWS V14.01,2013-01-17 13:29:00,
2013-01-17 07:30:00,36.5,34.9,30.26,North,349,0.0,3.0,94,0.00,,CLR,0.00,VWS V14.01,2013-01-17 13:30:00,
2013-01-17 07:31:00,36.5,34.9,30.26,North,349,0.0,1.5,94,0.00,,CLR,0.00,VWS V14.01,2013-01-17 13:31:00,
2013-01-17 07:32:00,36.5,34.9,30.26,North,349,0.0,1.5,94,0.00,,SCT006,0.00,VWS V14.01,2013-01-17 13:32:00,
2013-01-17 07:33:00,36.4,34.8,30.25,North,349,0.0,1.5,94,0.00,,CLR,0.00,VWS V14.01,2013-01-17 13:33:00,
2013-01-17 07:34:00,36.5,34.9,30.26,North,349,0.0,1.5,94,0.00,,CLR,0.00,VWS V14.01,2013-01-17 13:34:00,
2013-01-17 07:35:00,36.5,34.9,30.26,North,349,0.0,1.5,94,0.00,,CLR,0.00,VWS V14.01,2013-01-17 13:35:00,
2013-01-17 07:36:00,36.5,34.9,30.26,North,349,0.0,1.5,94,0.00,,CLR,0.00,VWS V14.01,2013-01-17 13:36:00,
2013-01-17 07:37:00,36.5,34.9,30.26,North,349,0.0,1.5,94,0.00,,SCT006,0.00,VWS V14.01,2013-01-17 13:37:00,
2013-01-17 07:38:00,36.5,34.9,30.26,North,355,0.0,3.0,94,0.00,,CLR,0.00,VWS V14.01,2013-01-17 13:38:00,
2013-01-17 07:39:00,36.5,34.9,30.25,North,355,0.0,3.0,94,0.00,,CLR,0.00,VWS V14.01,2013-01-17 13:39:00,
2013-01-17 07:40:00,36.5,35.2,30.25,North,355,0.0,0.0,95,0.00,,CLR,0.00,VWS V14.01,2013-01-17 13:40:00,
2013-01-17 07:41:00,36.5,35.2,30.25,North,355,0.0,0.0,95,0.00,,CLR,0.00,VWS V14.01,2013-01-17 13:41:00,
2013-01-17 07:42:00,36.5,35.2,30.25,North,355,0.0,0.0,95,0.00,,SCT006,0.00,VWS V14.01,2013-01-17 13:42:00,
2013-01-17 07:43:00,36.5,35.2,30.25,North,351,3.0,3.0,95,0.00,,CLR,0.00,VWS V14.01,2013-01-17 13:43:00,
2013-01-17 07:44:00,36.6,35.3,30.25,North,351,1.5,3.0,95,0.00,,CLR,0.00,VWS V14.01,2013-01-17 13:44:00,
2013-01-17 07:45:00,36.6,35.3,30.25,North,351,0.0,3.0,95,0.00,,CLR,0.00,VWS V14.01,2013-01-17 13:45:00,
2013-01-17 07:46:00,36.6,35.3,30.26,North,350,0.0,1.5,95,0.00,,CLR,0.00,VWS V14.01,2013-01-17 13:46:00,
2013-01-17 07:47:00,36.6,35.3,30.26,North,350,0.0,1.5,95,0.00,,SCT006,0.00,VWS V14.01,2013-01-17 13:47:00,
2013-01-17 07:48:00,36.7,35.4,30.26,North,350,0.0,1.5,95,0.00,,CLR,0.00,VWS V14.01,2013-01-17 13:48:00,
2013-01-17 07:49:00,36.8,35.5,30.26,North,350,0.0,1.5,95,0.00,,CLR,0.00,VWS V14.01,2013-01-17 13:49:00,
2013-01-17 07:50:00,36.8,35.2,30.26,North,350,0.0,0.0,94,0.00,,CLR,0.00,VWS V14.01,2013-01-17 13:50:00,
2013-01-17 07:51:00,36.9,35.3,30.26,North,350,0.0,1.5,94,0.00,,CLR,0.00,VWS V14.01,2013-01-17 13:51:00,
2013-01-17 07:52:00,36.9,35.3,30.26,North,350,0.0,1.5,94,0.00,,SCT006,0.00,VWS V14.01,2013-01-17 13:52:00,
2013-01-17 07:53:00,37.0,35.4,30.26,North,350,0.0,1.5,94,0.00,,CLR,0.00,VWS V14.01,2013-01-17 13:53:00,
2013-01-17 07:54:00,37.0,35.4,30.26,North,350,0.0,0.0,94,0.00,,CLR,0.00,VWS V14.01,2013-01-17 13:54:00,
2013-01-17 07:55:00,37.1,35.5,30.26,North,350,0.0,0.0,94,0.00,,CLR,0.00,VWS V14.01,2013-01-17 13:55:00,
2013-01-17 07:56:00,37.1,35.5,30.26,North,350,0.0,0.0,94,0.00,,CLR,0.00,VWS V14.01,2013-01-17 13:56:00,
2013-01-17 07:57:00,37.1,35.5,30.26,North,350,0.0,0.0,94,0.00,,SCT006,0.00,VWS V14.01,2013-01-17 13:57:00,
2013-01-17 07:58:00,37.2,35.9,30.26,North,350,0.0,1.5,95,0.00,,CLR,0.00,VWS V14.01,2013-01-17 13:58:00,
2013-01-17 07:59:00,37.3,36.0,30.26,NNW,330,0.0,1.5,95,0.00,,CLR,0.00,VWS V14.01,2013-01-17 13:59:00,
2013-01-17 08:00:00,37.3,35.7,30.26,NNW,330,1.5,1.5,94,0.00,,CLR,0.00,VWS V14.01,2013-01-17 14:00:00,
2013-01-17 08:01:00,37.4,35.8,30.26,NNW,330,0.0,1.5,94,0.00,,CLR,0.00,VWS V14.01,2013-01-17 14:01:00,
2013-01-17 08:02:00,37.4,35.8,30.26,NNW,330,0.0,1.5,94,0.00,,SCT006,0.00,VWS V14.01,2013-01-17 14:02:00,
2013-01-17 08:03:00,37.5,35.9,30.27,North,355,0.0,3.0,94,0.00,,CLR,0.00,VWS V14.01,2013-01-17 14:03:00,
2013-01-17 08:04:00,37.5,35.9,30.27,North,355,0.0,3.0,94,0.00,,CLR,0.00,VWS V14.01,2013-01-17 14:04:00,
2013-01-17 08:05:00,37.6,36.0,30.27,North,355,0.0,1.5,94,0.00,,CLR,0.00,VWS V14.01,2013-01-17 14:05:00,
2013-01-17 08:06:00,37.6,36.0,30.27,North,349,0.0,1.5,94,0.00,,CLR,0.00,VWS V14.01,2013-01-17 14:06:00,
2013-01-17 08:07:00,37.6,36.0,30.27,North,349,0.0,1.5,94,0.00,,SCT006,0.00,VWS V14.01,2013-01-17 14:07:00,
2013-01-17 08:08:00,37.7,36.1,30.27,NW,325,4.5,6.0,94,0.00,,CLR,0.00,VWS V14.01,2013-01-17 14:08:00,
2013-01-17 08:09:00,37.8,36.2,30.27,NW,319,0.0,6.0,94,0.00,,CLR,0.00,VWS V14.01,2013-01-17 14:09:00,
2013-01-17 08:10:00,37.8,36.2,30.27,North,5,3.0,6.0,94,0.00,,CLR,0.00,VWS V14.01,2013-01-17 14:10:00,
2013-01-17 08:11:00,37.9,36.3,30.27,NW,324,4.5,4.5,94,0.00,,CLR,0.00,VWS V14.01,2013-01-17 14:11:00,
2013-01-17 08:12:00,37.9,36.3,30.27,NW,324,4.5,4.5,94,0.00,,SCT006,0.00,VWS V14.01,2013-01-17 14:12:00,
2013-01-17 08:13:00,38.0,36.4,30.27,North,360,0.0,4.5,94,0.00,,CLR,0.00,VWS V14.01,2013-01-17 14:13:00,
2013-01-17 08:14:00,38.0,36.4,30.27,North,360,0.0,4.5,94,0.00,,CLR,0.00,VWS V14.01,2013-01-17 14:14:00,
2013-01-17 08:15:00,38.1,36.5,30.28,North,360,0.0,3.0,94,0.00,,CLR,0.00,VWS V14.01,2013-01-17 14:15:00,
2013-01-17 08:16:00,38.2,36.6,30.28,NNE,19,3.0,4.5,94,0.00,,CLR,0.00,VWS V14.01,2013-01-17 14:16:00,
2013-01-17 08:17:00,38.2,36.6,30.28,NNE,19,4.5,4.5,94,0.00,,SCT006,0.00,VWS V14.01,2013-01-17 14:17:00,
2013-01-17 08:18:00,38.3,36.7,30.28,NW,312,1.5,6.0,94,0.00,,CLR,0.00,VWS V14.01,2013-01-17 14:18:00,
2013-01-17 08:19:00,38.3,36.7,30.28,NW,312,0.0,6.0,94,0.00,,CLR,0.00,VWS V14.01,2013-01-17 14:19:00,
2013-01-17 08:20:00,38.4,36.8,30.28,NNW,338,3.0,4.5,94,0.00,,CLR,0.00,VWS V14.01,2013-01-17 14:20:00,
2013-01-17 08:21:00,38.4,36.6,30.28,NW,326,3.0,4.5,93,0.00,,CLR,0.00,VWS V14.01,2013-01-17 14:21:00,
2013-01-17 08:22:00,38.4,36.6,30.28,NW,326,4.5,4.5,93,0.00,,SCT006,0.00,VWS V14.01,2013-01-17 14:22:00,
2013-01-17 08:23:00,38.5,36.7,30.29,NW,317,3.0,4.5,93,0.00,,CLR,0.00,VWS V14.01,2013-01-17 14:23:00,
2013-01-17 08:24:00,38.6,36.8,30.28,North,9,3.0,4.5,93,0.00,,CLR,0.00,VWS V14.01,2013-01-17 14:24:00,
2013-01-17 08:25:00,38.6,36.8,30.28,North,9,0.0,3.0,93,0.00,,CLR,0.00,VWS V14.01,2013-01-17 14:25:00,
2013-01-17 08:26:00,38.7,36.8,30.28,North,360,0.0,3.0,93,0.00,,CLR,0.00,VWS V14.01,2013-01-17 14:26:00,
2013-01-17 08:27:00,38.7,36.8,30.28,North,360,0.0,3.0,93,0.00,,SCT006,0.00,VWS V14.01,2013-01-17 14:27:00,
2013-01-17 08:28:00,38.8,37.0,30.28,North,355,1.5,7.5,93,0.00,,CLR,0.00,VWS V14.01,2013-01-17 14:28:00,
2013-01-17 08:29:00,38.9,37.0,30.28,North,5,3.0,7.5,93,0.00,,CLR,0.00,VWS V14.01,2013-01-17 14:29:00,
2013-01-17 08:30:00,38.9,37.0,30.28,North,360,3.0,7.5,93,0.00,,CLR,0.00,VWS V14.01,2013-01-17 14:30:00,
2013-01-17 08:31:00,39.0,37.2,30.28,North,355,1.5,6.0,93,0.00,,CLR,0.00,VWS V14.01,2013-01-17 14:31:00,
2013-01-17 08:32:00,38.9,37.0,30.28,NNW,337,4.5,6.0,93,0.00,,SCT006,0.00,VWS V14.01,2013-01-17 14:32:00,
2013-01-17 08:33:00,39.1,37.0,30.28,North,355,0.0,7.5,92,0.00,,CLR,0.00,VWS V14.01,2013-01-17 14:33:00,
2013-01-17 08:34:00,39.1,37.0,30.28,NNW,328,0.0,6.0,92,0.00,,CLR,0.00,VWS V14.01,2013-01-17 14:34:00,
2013-01-17 08:35:00,39.2,37.1,30.28,NNW,327,0.0,4.5,92,0.00,,CLR,0.00,VWS V14.01,2013-01-17 14:35:00,
2013-01-17 08:36:00,39.3,37.2,30.28,NNW,345,3.0,6.0,92,0.00,,CLR,0.00,VWS V14.01,2013-01-17 14:36:00,
2013-01-17 08:37:00,39.3,37.2,30.28,NNW,345,3.0,6.0,92,0.00,,SCT006,0.00,VWS V14.01,2013-01-17 14:37:00,
2013-01-17 08:38:00,39.4,37.3,30.28,NNW,340,4.5,6.0,92,0.00,,CLR,0.00,VWS V14.01,2013-01-17 14:38:00,
2013-01-17 08:39:00,39.4,37.3,30.28,NNE,19,4.5,7.5,92,0.00,,CLR,0.00,VWS V14.01,2013-01-17 14:39:00,
2013-01-17 08:40:00,39.4,37.3,30.28,NE,37,0.0,7.5,92,0.00,,CLR,0.00,VWS V14.01,2013-01-17 14:40:00,
2013-01-17 08:41:00,39.5,37.1,30.28,NNW,340,4.5,7.5,91,0.00,,CLR,0.00,VWS V14.01,2013-01-17 14:41:00,
2013-01-17 08:42:00,39.5,37.1,30.28,North,355,1.5,7.5,91,0.00,,FEW008,0.00,VWS V14.01,2013-01-17 14:42:00,
2013-01-17 08:43:00,39.5,37.1,30.28,North,360,3.0,4.5,91,0.00,,CLR,0.00,VWS V14.01,2013-01-17 14:43:00,
2013-01-17 08:44:00,39.6,37.2,30.28,WNW,302,6.0,6.0,91,0.00,,CLR,0.00,VWS V14.01,2013-01-17 14:44:00,
2013-01-17 08:45:00,39.6,37.2,30.28,NNW,346,4.5,7.5,91,0.00,,CLR,0.00,VWS V14.01,2013-01-17 14:45:00,
2013-01-17 08:46:00,39.6,37.2,30.28,NNW,346,4.5,7.5,91,0.00,,CLR,0.00,VWS V14.01,2013-01-17 14:46:00,
2013-01-17 08:47:00,39.6,37.2,30.28,NNW,346,4.5,7.5,91,0.00,,FEW008,0.00,VWS V14.01,2013-01-17 14:47:00,
2013-01-17 08:48:00,39.6,36.9,30.29,NNW,340,3.0,9.0,90,0.00,,CLR,0.00,VWS V14.01,2013-01-17 14:48:00,
2013-01-17 08:49:00,39.5,36.8,30.28,NNW,338,3.0,9.0,90,0.00,,CLR,0.00,VWS V14.01,2013-01-17 14:49:00,
2013-01-17 08:50:00,39.6,37.2,30.29,NNW,336,0.0,4.5,91,0.00,,CLR,0.00,VWS V14.01,2013-01-17 14:50:00,
2013-01-17 08:51:00,39.6,37.2,30.29,NNE,22,1.5,4.5,91,0.00,,CLR,0.00,VWS V14.01,2013-01-17 14:51:00,
2013-01-17 08:52:00,39.6,37.2,30.29,NNE,22,3.0,4.5,91,0.00,,FEW008,0.00,VWS V14.01,2013-01-17 14:52:00,
2013-01-17 08:53:00,39.8,37.4,30.29,NNE,22,1.5,4.5,91,0.00,,CLR,0.00,VWS V14.01,2013-01-17 14:53:00,
2013-01-17 08:54:00,40.0,37.6,30.29,NNW,348,6.0,7.5,91,0.00,,CLR,0.00,VWS V14.01,2013-01-17 14:54:00,
2013-01-17 08:55:00,40.0,37.3,30.29,NW,322,3.0,7.5,90,0.00,,CLR,0.00,VWS V14.01,2013-01-17 14:55:00,
2013-01-17 08:56:00,40.1,37.1,30.29,North,355,7.5,7.5,89,0.00,,CLR,0.00,VWS V14.01,2013-01-17 14:56:00,
2013-01-17 08:57:00,40.1,37.1,30.29,North,360,6.0,7.5,89,0.00,,FEW008,0.00,VWS V14.01,2013-01-17 14:57:00,
2013-01-17 08:58:00,40.2,37.2,30.29,North,11,1.5,7.5,89,0.00,,CLR,0.00,VWS V14.01,2013-01-17 14:58:00,
2013-01-17 08:59:00,40.3,37.3,30.29,NNW,335,1.5,7.5,89,0.00,,CLR,0.00,VWS V14.01,2013-01-17 14:59:00,
2013-01-17 09:00:00,40.4,37.4,30.30,NNW,332,4.5,7.5,89,0.00,,CLR,0.00,VWS V14.01,2013-01-17 15:00:00,
2013-01-17 09:01:00,40.5,37.5,30.29,NW,325,6.0,10.5,89,0.00,,CLR,0.00,VWS V14.01,2013-01-17 15:01:00,
2013-01-17 09:02:00,40.5,37.5,30.29,North,355,10.5,10.5,89,0.00,,FEW008,0.00,VWS V14.01,2013-01-17 15:02:00,
2013-01-17 09:03:00,40.5,37.2,30.30,NNE,25,7.5,12.0,88,0.00,,CLR,0.00,VWS V14.01,2013-01-17 15:03:00,
2013-01-17 09:04:00,40.6,37.3,30.30,NNW,342,3.0,12.0,88,0.00,,CLR,0.00,VWS V14.01,2013-01-17 15:04:00,
2013-01-17 09:05:00,40.7,37.4,30.30,North,355,4.5,12.0,88,0.00,,CLR,0.00,VWS V14.01,2013-01-17 15:05:00,
2013-01-17 09:06:00,40.7,37.7,30.30,North,355,3.0,9.0,89,0.00,,CLR,0.00,VWS V14.01,2013-01-17 15:06:00,
2013-01-17 09:07:00,40.7,37.7,30.30,NNW,348,3.0,9.0,89,0.00,,FEW008,0.00,VWS V14.01,2013-01-17 15:07:00,
2013-01-17 09:08:00,40.9,37.6,30.30,NNW,339,4.5,9.0,88,0.00,,CLR,0.00,VWS V14.01,2013-01-17 15:08:00,
2013-01-17 09:09:00,40.9,37.6,30.30,North,360,6.0,6.0,88,0.00,,CLR,0.00,VWS V14.01,2013-01-17 15:09:00,
2013-01-17 09:10:00,41.0,37.7,30.31,NW,319,6.0,9.0,88,0.00,,CLR,0.00,VWS V14.01,2013-01-17 15:10:00,
2013-01-17 09:11:00,41.1,37.8,30.30,NNW,334,4.5,9.0,88,0.00,,CLR,0.00,VWS V14.01,2013-01-17 15:11:00,
2013-01-17 09:12:00,41.1,37.8,30.30,NNW,335,3.0,9.0,88,0.00,,FEW008,0.00,VWS V14.01,2013-01-17 15:12:00,
2013-01-17 09:13:00,41.2,37.6,30.31,NNW,329,9.0,10.5,87,0.00,,CLR,0.00,VWS V14.01,2013-01-17 15:13:00,
2013-01-17 09:14:00,41.2,37.6,30.31,NNW,327,6.0,10.5,87,0.00,,CLR,0.00,VWS V14.01,2013-01-17 15:14:00,
2013-01-17 09:15:00,41.2,37.3,30.31,NW,317,3.0,10.5,86,0.00,,CLR,0.00,VWS V14.01,2013-01-17 15:15:00,
2013-01-17 09:16:00,41.1,37.2,30.31,NW,313,4.5,9.0,86,0.00,,CLR,0.00,VWS V14.01,2013-01-17 15:16:00,
2013-01-17 09:17:00,41.2,37.3,30.31,NNW,340,3.0,9.0,86,0.00,,FEW008,0.00,VWS V14.01,2013-01-17 15:17:00,
2013-01-17 09:18:00,41.3,38.0,30.31,NNW,342,6.0,6.0,88,0.00,,CLR,0.00,VWS V14.01,2013-01-17 15:18:00,
2013-01-17 09:19:00,41.3,37.4,30.31,North,355,3.0,9.0,86,0.00,,CLR,0.00,VWS V14.01,2013-01-17 15:19:00,
2013-01-17 09:20:00,41.4,37.8,30.31,North,349,10.5,10.5,87,0.00,,CLR,0.00,VWS V14.01,2013-01-17 15:20:00,
2013-01-17 09:21:00,41.5,37.9,30.31,North,5,1.5,10.5,87,0.00,,CLR,0.00,VWS V14.01,2013-01-17 15:21:00,
2013-01-17 09:22:00,41.5,37.9,30.31,NNW,341,3.0,10.5,87,0.00,,FEW008,0.00,VWS V14.01,2013-01-17 15:22:00,
2013-01-17 09:23:00,41.6,37.7,30.31,North,355,4.5,7.5,86,0.00,,CLR,0.00,VWS V14.01,2013-01-17 15:23:00,
2013-01-17 09:24:00,41.6,38.0,30.31,North,355,3.0,7.5,87,0.00,,CLR,0.00,VWS V14.01,2013-01-17 15:24:00,
2013-01-17 09:25:00,41.7,38.1,30.31,NW,326,4.5,6.0,87,0.00,,CLR,0.00,VWS V14.01,2013-01-17 15:25:00,
2013-01-17 09:26:00,41.8,38.2,30.31,NW,322,0.0,6.0,87,0.00,,CLR,0.00,VWS V14.01,2013-01-17 15:26:00,
2013-01-17 09:27:00,41.8,38.2,30.31,NW,323,3.0,6.0,87,0.00,,FEW008,0.00,VWS V14.01,2013-01-17 15:27:00,
2013-01-17 09:28:00,42.0,38.1,30.31,WNW,283,9.0,12.0,86,0.00,,CLR,0.00,VWS V14.01,2013-01-17 15:28:00,
2013-01-17 09:29:00,41.9,37.4,30.32,NNW,328,3.0,12.0,84,0.00,,CLR,0.00,VWS V14.01,2013-01-17 15:29:00,
2013-01-17 09:30:00,41.9,37.4,30.32,WNW,294,6.0,12.0,84,0.00,,CLR,0.00,VWS V14.01,2013-01-17 15:30:00,
2013-01-17 09:31:00,41.9,37.7,30.32,NNW,348,3.0,9.0,85,0.00,,CLR,0.00,VWS V14.01,2013-01-17 15:31:00,
2013-01-17 09:32:00,41.9,37.7,30.32,NNW,331,4.5,9.0,85,0.00,,FEW008,0.00,VWS V14.01,2013-01-17 15:32:00,
2013-01-17 09:33:00,42.0,38.1,30.31,NNW,345,4.5,7.5,86,0.00,,CLR,0.00,VWS V14.01,2013-01-17 15:33:00,
2013-01-17 09:34:00,42.0,37.8,30.31,WNW,301,1.5,7.5,85,0.00,,CLR,0.00,VWS V14.01,2013-01-17 15:34:00,
2013-01-17 09:35:00,42.0,37.8,30.31,NNW,328,1.5,7.5,85,0.00,,CLR,0.00,VWS V14.01,2013-01-17 15:35:00,
2013-01-17 09:36:00,42.1,38.2,30.31,NW,310,0.0,4.5,86,0.00,,CLR,0.00,VWS V14.01,2013-01-17 15:36:00,
2013-01-17 09:37:00,42.0,38.1,30.31,NW,310,1.5,4.5,86,0.00,,FEW008,0.00,VWS V14.01,2013-01-17 15:37:00,
2013-01-17 09:38:00,42.2,38.3,30.31,NW,313,1.5,4.5,86,0.00,,CLR,0.00,VWS V14.01,2013-01-17 15:38:00,
2013-01-17 09:39:00,42.3,38.4,30.31,NNW,346,7.5,7.5,86,0.00,,CLR,0.00,VWS V14.01,2013-01-17 15:39:00,
2013-01-17 09:40:00,42.4,38.2,30.31,NNE,13,6.0,7.5,85,0.00,,CLR,0.00,VWS V14.01,2013-01-17 15:40:00,
2013-01-17 09:41:00,42.4,37.9,30.32,WNW,284,3.0,10.5,84,0.00,,CLR,0.00,VWS V14.01,2013-01-17 15:41:00,
2013-01-17 09:42:00,42.4,37.9,30.32,WNW,294,7.5,10.5,84,0.00,,FEW008,0.00,VWS V14.01,2013-01-17 15:42:00,
2013-01-17 09:43:00,42.4,37.9,30.32,NW,326,7.5,10.5,84,0.00,,CLR,0.00,VWS V14.01,2013-01-17 15:43:00,
2013-01-17 09:44:00,42.4,37.9,30.32,NW,313,0.0,12.0,84,0.00,,CLR,0.00,VWS V14.01,2013-01-17 15:44:00,
2013-01-17 09:45:00,42.4,37.9,30.31,NW,319,4.5,12.0,84,0.00,,CLR,0.00,VWS V14.01,2013-01-17 15:45:00,
2013-01-17 09:46:00,42.5,38.3,30.32,NW,305,4.5,12.0,85,0.00,,CLR,0.00,VWS V14.01,2013-01-17 15:46:00,
2013-01-17 09:47:00,42.5,38.3,30.32,North,355,6.0,12.0,85,0.00,,FEW008,0.00,VWS V14.01,2013-01-17 15:47:00,
2013-01-17 09:48:00,42.6,38.1,30.31,NNW,346,1.5,10.5,84,0.00,,CLR,0.00,VWS V14.01,2013-01-17 15:48:00,
2013-01-17 09:49:00,42.6,38.1,30.31,NNW,343,4.5,9.0,84,0.00,,CLR,0.00,VWS V14.01,2013-01-17 15:49:00,
2013-01-17 09:50:00,42.6,37.8,30.31,NW,318,3.0,9.0,83,0.00,,CLR,0.00,VWS V14.01,2013-01-17 15:50:00,
2013-01-17 09:51:00,42.6,38.1,30.31,North,355,4.5,9.0,84,0.00,,CLR,0.00,VWS V14.01,2013-01-17 15:51:00,
2013-01-17 09:52:00,42.7,38.2,30.31,NW,319,6.0,9.0,84,0.00,,FEW008,0.00,VWS V14.01,2013-01-17 15:52:00,
2013-01-17 09:53:00,42.6,37.8,30.31,NW,318,4.5,15.0,83,0.00,,CLR,0.00,VWS V14.01,2013-01-17 15:53:00,
2013-01-17 09:54:00,42.5,37.7,30.31,West,279,6.0,12.0,83,0.00,,CLR,0.00,VWS V14.01,2013-01-17 15:54:00,
2013-01-17 09:55:00,42.5,37.7,30.32,NNW,335,0.0,9.0,83,0.00,,CLR,0.00,VWS V14.01,2013-01-17 15:55:00,
2013-01-17 09:56:00,42.6,38.1,30.32,NW,317,4.5,7.5,84,0.00,,CLR,0.00,VWS V14.01,2013-01-17 15:56:00,
2013-01-17 09:57:00,42.6,38.1,30.32,NNW,346,3.0,7.5,84,0.00,,FEW008,0.00,VWS V14.01,2013-01-17 15:57:00,
2013-01-17 09:58:00,42.7,37.9,30.32,NNW,330,6.0,12.0,83,0.00,,CLR,0.00,VWS V14.01,2013-01-17 15:58:00,
2013-01-17 09:59:00,42.8,38.3,30.32,NW,323,4.5,12.0,84,0.00,,CLR,0.00,VWS V14.01,2013-01-17 15:59:00,
2013-01-17 10:00:00,42.8,38.3,30.32,NW,317,1.5,9.0,84,0.00,,CLR,0.00,VWS V14.01,2013-01-17 16:00:00,
2013-01-17 10:01:00,42.9,38.4,30.32,North,355,7.5,7.5,84,0.00,,CLR,0.00,VWS V14.01,2013-01-17 16:01:00,
2013-01-17 10:02:00,42.9,38.4,30.32,NW,317,4.5,7.5,84,0.00,,CLR,0.00,VWS V14.01,2013-01-17 16:02:00,
2013-01-17 10:03:00,42.9,37.8,30.32,NNW,329,6.0,12.0,82,0.00,,CLR,0.00,VWS V14.01,2013-01-17 16:03:00,
2013-01-17 10:04:00,42.8,37.7,30.32,North,349,1.5,12.0,82,0.00,,CLR,0.00,VWS V14.01,2013-01-17 16:04:00,
2013-01-17 10:05:00,42.8,37.7,30.32,NNW,340,9.0,10.5,82,0.00,,CLR,0.00,VWS V14.01,2013-01-17 16:05:00,
2013-01-17 10:06:00,42.7,37.6,30.32,NNW,336,7.5,12.0,82,0.00,,CLR,0.00,VWS V14.01,2013-01-17 16:06:00,
2013-01-17 10:07:00,42.7,37.6,30.32,NW,321,7.5,12.0,82,0.00,,CLR,0.00,VWS V14.01,2013-01-17 16:07:00,
2013-01-17 10:08:00,42.7,37.6,30.32,NW,317,6.0,12.0,82,0.00,,CLR,0.00,VWS V14.01,2013-01-17 16:08:00,
2013-01-17 10:09:00,42.8,37.7,30.32,WNW,298,3.0,12.0,82,0.00,,CLR,0.00,VWS V14.01,2013-01-17 16:09:00,
2013-01-17 10:10:00,42.8,37.4,30.32,NW,311,3.0,12.0,81,0.00,,CLR,0.00,VWS V14.01,2013-01-17 16:10:00,
2013-01-17 10:11:00,42.9,37.8,30.32,NNW,338,9.0,12.0,82,0.00,,CLR,0.00,VWS V14.01,2013-01-17 16:11:00,
2013-01-17 10:12:00,42.9,37.8,30.32,NNW,338,6.0,12.0,82,0.00,,CLR,0.00,VWS V14.01,2013-01-17 16:12:00,
2013-01-17 10:13:00,43.1,38.3,30.32,NNW,329,3.0,9.0,83,0.00,,CLR,0.00,VWS V14.01,2013-01-17 16:13:00,
2013-01-17 10:14:00,43.2,38.4,30.32,NW,323,6.0,9.0,83,0.00,,CLR,0.00,VWS V14.01,2013-01-17 16:14:00,
2013-01-17 10:15:00,43.3,37.9,30.32,North,355,0.0,9.0,81,0.00,,CLR,0.00,VWS V14.01,2013-01-17 16:15:00,
2013-01-17 10:16:00,43.3,38.2,30.32,NNW,340,3.0,9.0,82,0.00,,CLR,0.00,VWS V14.01,2013-01-17 16:16:00,
2013-01-17 10:17:00,43.3,38.2,30.32,NNW,340,3.0,9.0,82,0.00,,CLR,0.00,VWS V14.01,2013-01-17 16:17:00,
2013-01-17 10:18:00,43.4,37.7,30.32,NNW,329,7.5,9.0,80,0.00,,CLR,0.00,VWS V14.01,2013-01-17 16:18:00,
2013-01-17 10:19:00,43.4,37.7,30.32,North,351,4.5,9.0,80,0.00,,CLR,0.00,VWS V14.01,2013-01-17 16:19:00,
2013-01-17 10:20:00,43.4,37.7,30.32,NW,304,6.0,9.0,80,0.00,,CLR,0.00,VWS V14.01,2013-01-17 16:20:00,
2013-01-17 10:21:00,43.4,38.0,30.32,NW,321,6.0,9.0,81,0.00,,CLR,0.00,VWS V14.01,2013-01-17 16:21:00,
2013-01-17 10:22:00,43.4,37.7,30.32,NNW,339,1.5,9.0,80,0.00,,CLR,0.00,VWS V14.01,2013-01-17 16:22:00,
2013-01-17 10:23:00,43.4,38.0,30.32,NNW,329,6.0,7.5,81,0.00,,CLR,0.00,VWS V14.01,2013-01-17 16:23:00,
2013-01-17 10:24:00,43.4,38.0,30.31,NW,304,4.5,9.0,81,0.00,,CLR,0.00,VWS V14.01,2013-01-17 16:24:00,
2013-01-17 10:25:00,43.4,38.0,30.31,NW,307,7.5,9.0,81,0.00,,CLR,0.00,VWS V14.01,2013-01-17 16:25:00,
2013-01-17 10:26:00,43.4,37.7,30.31,NW,306,0.0,9.0,80,0.00,,CLR,0.00,VWS V14.01,2013-01-17 16:26:00,
2013-01-17 10:27:00,43.4,37.7,30.31,NW,306,0.0,9.0,80,0.00,,CLR,0.00,VWS V14.01,2013-01-17 16:27:00,
2013-01-17 10:28:00,43.6,38.2,30.31,NW,306,7.5,10.5,81,0.00,,CLR,0.00,VWS V14.01,2013-01-17 16:28:00,
2013-01-17 10:29:00,43.6,37.8,30.31,NNW,339,3.0,10.5,80,0.00,,CLR,0.00,VWS V14.01,2013-01-17 16:29:00,
2013-01-17 10:30:00,43.7,37.6,30.31,NW,325,3.0,10.5,79,0.00,,CLR,0.00,VWS V14.01,2013-01-17 16:30:00,
2013-01-17 10:31:00,43.7,37.9,30.31,NW,322,6.0,9.0,80,0.00,,CLR,0.00,VWS V14.01,2013-01-17 16:31:00,
2013-01-17 10:32:00,43.7,38.0,30.31,NNW,337,7.5,9.0,80,0.00,,CLR,0.00,VWS V14.01,2013-01-17 16:32:00,
2013-01-17 10:33:00,43.8,37.7,30.31,NW,323,10.5,10.5,79,0.00,,CLR,0.00,VWS V14.01,2013-01-17 16:33:00,
2013-01-17 10:34:00,43.8,38.0,30.31,NNW,342,6.0,10.5,80,0.00,,CLR,0.00,VWS V14.01,2013-01-17 16:34:00,
2013-01-17 10:35:00,43.8,37.7,30.31,North,351,3.0,10.5,79,0.00,,CLR,0.00,VWS V14.01,2013-01-17 16:35:00,
2013-01-17 10:36:00,44.0,38.2,30.31,WNW,301,4.5,9.0,80,0.00,,CLR,0.00,VWS V14.01,2013-01-17 16:36:00,
2013-01-17 10:37:00,44.0,38.2,30.31,NW,309,1.5,9.0,80,0.00,,CLR,0.00,VWS V14.01,2013-01-17 16:37:00,
2013-01-17 10:38:00,44.1,38.0,30.31,NW,316,6.0,9.0,79,0.00,,CLR,0.00,VWS V14.01,2013-01-17 16:38:00,
2013-01-17 10:39:00,44.1,38.0,30.31,NW,320,4.5,7.5,79,0.00,,CLR,0.00,VWS V14.01,2013-01-17 16:39:00,
2013-01-17 10:40:00,44.2,38.1,30.31,WNW,289,6.0,7.5,79,0.00,,CLR,0.00,VWS V14.01,2013-01-17 16:40:00,
2013-01-17 10:41:00,44.3,38.5,30.31,NNW,330,0.0,6.0,80,0.00,,CLR,0.00,VWS V14.01,2013-01-17 16:41:00,
2013-01-17 10:42:00,44.3,38.5,30.31,NNW,341,4.5,7.5,80,0.00,,CLR,0.00,VWS V14.01,2013-01-17 16:42:00,
2013-01-17 10:43:00,44.4,38.3,30.31,North,355,4.5,7.5,79,0.00,,CLR,0.00,VWS V14.01,2013-01-17 16:43:00,
2013-01-17 10:44:00,44.5,38.1,30.31,NNW,341,4.5,7.5,78,0.00,,CLR,0.00,VWS V14.01,2013-01-17 16:44:00,
2013-01-17 10:45:00,44.5,37.4,30.31,North,350,1.5,12.0,76,0.00,,CLR,0.00,VWS V14.01,2013-01-17 16:45:00,
2013-01-17 10:46:00,44.6,37.8,30.31,NE,41,10.5,12.0,77,0.00,,CLR,0.00,VWS V14.01,2013-01-17 16:46:00,
2013-01-17 10:47:00,44.6,37.8,30.31,NNE,15,12.0,12.0,77,0.00,,CLR,0.00,VWS V14.01,2013-01-17 16:47:00,
2013-01-17 10:48:00,44.7,38.3,30.31,North,360,3.0,12.0,78,0.00,,CLR,0.00,VWS V14.01,2013-01-17 16:48:00,
2013-01-17 10:49:00,44.8,38.0,30.31,NNW,327,3.0,10.5,77,0.00,,CLR,0.00,VWS V14.01,2013-01-17 16:49:00,
2013-01-17 10:50:00,44.9,38.1,30.31,NW,310,4.5,10.5,77,0.00,,CLR,0.00,VWS V14.01,2013-01-17 16:50:00,
2013-01-17 10:51:00,45.0,38.6,30.31,NNW,342,1.5,6.0,78,0.00,,CLR,0.00,VWS V14.01,2013-01-17 16:51:00,
2013-01-17 10:52:00,45.0,38.2,30.31,NNW,333,1.5,7.5,77,0.00,,CLR,0.00,VWS V14.01,2013-01-17 16:52:00,
2013-01-17 10:53:00,45.2,38.4,30.31,North,360,3.0,9.0,77,0.00,,CLR,0.00,VWS V14.01,2013-01-17 16:53:00,
2013-01-17 10:54:00,45.4,39.0,30.31,North,11,4.5,9.0,78,0.00,,CLR,0.00,VWS V14.01,2013-01-17 16:54:00,
2013-01-17 10:55:00,45.4,38.3,30.31,NW,315,6.0,7.5,76,0.00,,CLR,0.00,VWS V14.01,2013-01-17 16:55:00,
2013-01-17 10:56:00,45.4,38.3,30.31,North,360,10.5,10.5,76,0.00,,CLR,0.00,VWS V14.01,2013-01-17 16:56:00,
2013-01-17 10:57:00,45.4,38.3,30.31,NNW,340,9.0,10.5,76,0.00,,CLR,0.00,VWS V14.01,2013-01-17 16:57:00,
2013-01-17 10:58:00,45.2,36.7,30.31,NNE,33,10.5,15.0,72,0.00,,CLR,0.00,VWS V14.01,2013-01-17 16:58:00,
2013-01-17 10:59:00,45.2,37.4,30.31,North,350,7.5,19.5,74,0.00,,CLR,0.00,VWS V14.01,2013-01-17 16:59:00,
2013-01-17 11:00:00,45.1,36.6,30.31,North,355,3.0,19.5,72,0.00,,CLR,0.00,VWS V14.01,2013-01-17 17:00:00,
2013-01-17 11:01:00,45.1,37.3,30.31,NNW,330,3.0,19.5,74,0.00,,CLR,0.00,VWS V14.01,2013-01-17 17:01:00,
2013-01-17 11:02:00,45.1,37.3,30.31,NNW,339,3.0,19.5,74,0.00,,CLR,0.00,VWS V14.01,2013-01-17 17:02:00,
2013-01-17 11:03:00,45.3,37.5,30.31,NW,308,7.5,18.0,74,0.00,,CLR,0.00,VWS V14.01,2013-01-17 17:03:00,
2013-01-17 11:04:00,45.3,37.5,30.31,North,360,6.0,18.0,74,0.00,,CLR,0.00,VWS V14.01,2013-01-17 17:04:00,
2013-01-17 11:05:00,45.3,37.5,30.31,WNW,298,1.5,10.5,74,0.00,,CLR,0.00,VWS V14.01,2013-01-17 17:05:00,
2013-01-17 11:06:00,45.4,37.6,30.31,NNE,26,4.5,9.0,74,0.00,,CLR,0.00,VWS V14.01,2013-01-17 17:06:00,
2013-01-17 11:07:00,45.4,37.6,30.31,NNE,27,1.5,9.0,74,0.00,,CLR,0.00,VWS V14.01,2013-01-17 17:07:00,
2013-01-17 11:08:00,45.6,37.8,30.31,NNW,328,4.5,6.0,74,0.00,,CLR,0.00,VWS V14.01,2013-01-17 17:08:00,
2013-01-17 11:09:00,45.6,37.5,30.31,NW,322,4.5,7.5,73,0.00,,CLR,0.00,VWS V14.01,2013-01-17 17:09:00,
2013-01-17 11:10:00,45.7,37.5,30.31,NNW,338,4.5,9.0,73,0.00,,CLR,0.00,VWS V14.01,2013-01-17 17:10:00,
2013-01-17 11:11:00,45.7,37.5,30.30,NNW,333,3.0,9.0,73,0.00,,CLR,0.00,VWS V14.01,2013-01-17 17:11:00,
2013-01-17 11:12:00,45.7,37.5,30.30,NNW,333,1.5,9.0,73,0.00,,CLR,0.00,VWS V14.01,2013-01-17 17:12:00,
2013-01-17 11:13:00,45.8,37.7,30.30,NW,316,10.5,10.5,73,0.00,,CLR,0.00,VWS V14.01,2013-01-17 17:13:00,
2013-01-17 11:14:00,45.9,37.8,30.30,NW,309,7.5,12.0,73,0.00,,CLR,0.00,VWS V14.01,2013-01-17 17:14:00,
2013-01-17 11:15:00,45.9,37.8,30.30,NNW,345,9.0,12.0,73,0.00,,CLR,0.00,VWS V14.01,2013-01-17 17:15:00,
2013-01-17 11:16:00,46.0,37.5,30.30,NNE,20,7.5,12.0,72,0.00,,CLR,0.00,VWS V14.01,2013-01-17 17:16:00,
2013-01-17 11:17:00,46.0,37.5,30.30,NNE,32,4.5,12.0,72,0.00,,CLR,0.00,VWS V14.01,2013-01-17 17:17:00,
2013-01-17 11:18:00,46.2,38.0,30.30,NW,317,9.0,12.0,73,0.00,,CLR,0.00,VWS V14.01,2013-01-17 17:18:00,
2013-01-17 11:19:00,46.3,37.1,30.30,NNE,18,3.0,12.0,70,0.00,,CLR,0.00,VWS V14.01,2013-01-17 17:19:00,
2013-01-17 11:20:00,46.4,37.2,30.30,NNE,12,15.0,15.0,70,0.00,,CLR,0.00,VWS V14.01,2013-01-17 17:20:00,
2013-01-17 11:21:00,46.4,35.7,30.30,NNW,346,10.5,15.0,66,0.00,,CLR,0.00,VWS V14.01,2013-01-17 17:21:00,
2013-01-17 11:22:00,46.4,35.7,30.30,NNW,346,10.5,15.0,66,0.00,,CLR,0.00,VWS V14.01,2013-01-17 17:22:00,
2013-01-17 11:23:00,46.4,35.7,30.30,North,351,9.0,16.5,66,0.01,,CLR,0.01,VWS V14.01,2013-01-17 17:23:00,
2013-01-17 11:24:00,46.3,35.2,30.30,NW,307,6.0,16.5,65,0.01,,CLR,0.01,VWS V14.01,2013-01-17 17:24:00,
2013-01-17 11:25:00,46.4,35.3,30.30,North,5,12.0,16.5,65,0.01,,CLR,0.01,VWS V14.01,2013-01-17 17:25:00,
2013-01-17 11:26:00,46.5,36.2,30.30,NNW,342,13.5,16.5,67,0.01,,CLR,0.01,VWS V14.01,2013-01-17 17:26:00,
2013-01-17 11:27:00,46.5,35.8,30.30,NNW,335,15.0,16.5,66,0.01,,CLR,0.01,VWS V14.01,2013-01-17 17:27:00,
2013-01-17 11:28:00,46.7,36.3,30.30,WNW,291,10.5,15.0,67,0.01,,CLR,0.01,VWS V14.01,2013-01-17 17:28:00,
2013-01-17 11:29:00,46.8,35.3,30.30,NNW,332,10.5,12.0,64,0.01,,CLR,0.01,VWS V14.01,2013-01-17 17:29:00,
2013-01-17 11:30:00,46.8,35.3,30.30,North,11,12.0,15.0,64,0.01,,CLR,0.01,VWS V14.01,2013-01-17 17:30:00,
2013-01-17 11:31:00,46.8,35.3,30.30,NNW,348,13.5,15.0,64,0.01,,CLR,0.01,VWS V14.01,2013-01-17 17:31:00,
2013-01-17 11:32:00,46.8,35.3,30.30,NNW,338,12.0,15.0,64,0.01,,CLR,0.01,VWS V14.01,2013-01-17 17:32:00,
2013-01-17 11:33:00,46.9,35.4,30.30,North,355,13.5,18.0,64,0.01,,CLR,0.01,VWS V14.01,2013-01-17 17:33:00,
2013-01-17 11:34:00,46.9,34.6,30.30,North,9,9.0,18.0,62,0.01,,CLR,0.01,VWS V14.01,2013-01-17 17:34:00,
2013-01-17 11:35:00,46.9,35.0,30.30,NNW,330,4.5,16.5,63,0.01,,CLR,0.01,VWS V14.01,2013-01-17 17:35:00,
2013-01-17 11:36:00,47.0,35.5,30.30,North,5,15.0,16.5,64,0.01,,CLR,0.01,VWS V14.01,2013-01-17 17:36:00,
2013-01-17 11:37:00,47.0,35.5,30.30,North,5,4.5,16.5,64,0.01,,CLR,0.01,VWS V14.01,2013-01-17 17:37:00,
2013-01-17 11:38:00,47.2,35.7,30.30,NNW,342,12.0,15.0,64,0.01,,CLR,0.01,VWS V14.01,2013-01-17 17:38:00,
2013-01-17 11:39:00,47.3,35.4,30.30,NNW,333,15.0,15.0,63,0.01,,CLR,0.01,VWS V14.01,2013-01-17 17:39:00,
2013-01-17 11:40:00,47.4,35.0,30.30,NNW,331,10.5,15.0,62,0.01,,CLR,0.01,VWS V14.01,2013-01-17 17:40:00,
2013-01-17 11:41:00,47.6,35.2,30.30,NNW,330,13.5,15.0,62,0.01,,CLR,0.01,VWS V14.01,2013-01-17 17:41:00,
2013-01-17 11:42:00,47.6,35.2,30.30,NNW,343,13.5,15.0,62,0.01,,CLR,0.01,VWS V14.01,2013-01-17 17:42:00,
2013-01-17 11:43:00,47.7,34.9,30.30,NNW,346,3.0,13.5,61,0.01,,CLR,0.01,VWS V14.01,2013-01-17 17:43:00,
2013-01-17 11:44:00,47.7,34.9,30.30,North,355,9.0,13.5,61,0.01,,CLR,0.01,VWS V14.01,2013-01-17 17:44:00,
2013-01-17 11:45:00,47.8,35.4,30.29,NNW,334,10.5,13.5,62,0.01,,CLR,0.01,VWS V14.01,2013-01-17 17:45:00,
2013-01-17 11:46:00,47.8,35.0,30.29,NW,325,9.0,16.5,61,0.01,,CLR,0.01,VWS V14.01,2013-01-17 17:46:00,
2013-01-17 11:47:00,47.8,35.0,30.29,North,350,7.5,16.5,61,0.01,,CLR,0.01,VWS V14.01,2013-01-17 17:47:00,
2013-01-17 11:48:00,47.7,34.1,30.29,NNW,336,10.5,18.0,59,0.01,,CLR,0.01,VWS V14.01,2013-01-17 17:48:00,
2013-01-17 11:49:00,47.7,34.1,30.29,NW,318,10.5,18.0,59,0.01,,CLR,0.01,VWS V14.01,2013-01-17 17:49:00,
2013-01-17 11:50:00,47.7,34.5,30.29,NNW,344,10.5,13.5,60,0.01,,CLR,0.01,VWS V14.01,2013-01-17 17:50:00,
2013-01-17 11:51:00,47.7,34.5,30.29,NNW,347,3.0,13.5,60,0.01,,CLR,0.01,VWS V14.01,2013-01-17 17:51:00,
2013-01-17 11:52:00,47.7,34.5,30.29,NNW,329,3.0,13.5,60,0.01,,CLR,0.01,VWS V14.01,2013-01-17 17:52:00,
2013-01-17 11:53:00,48.0,35.6,30.29,North,349,9.0,13.5,62,0.01,,CLR,0.01,VWS V14.01,2013-01-17 17:53:00,
2013-01-17 11:54:00,48.1,35.7,30.29,NNW,342,7.5,13.5,62,0.01,,CLR,0.01,VWS V14.01,2013-01-17 17:54:00,
2013-01-17 11:55:00,48.2,34.6,30.29,NW,324,7.5,13.5,59,0.01,,CLR,0.01,VWS V14.01,2013-01-17 17:55:00,
2013-01-17 11:56:00,48.2,34.6,30.29,North,355,1.5,10.5,59,0.01,,CLR,0.01,VWS V14.01,2013-01-17 17:56:00,
2013-01-17 11:57:00,48.2,34.6,30.29,North,355,6.0,10.5,59,0.01,,CLR,0.01,VWS V14.01,2013-01-17 17:57:00,
2013-01-17 11:58:00,48.3,35.1,30.29,NW,319,13.5,13.5,60,0.01,,CLR,0.01,VWS V14.01,2013-01-17 17:58:00,
2013-01-17 11:59:00,48.3,34.7,30.28,NNW,345,9.0,19.5,59,0.01,,CLR,0.01,VWS V14.01,2013-01-17 17:59:00,
2013-01-17 12:00:00,48.4,35.2,30.28,NNE,26,3.0,19.5,60,0.01,,CLR,0.01,VWS V14.01,2013-01-17 18:00:00,
2013-01-17 12:01:00,48.5,35.3,30.28,NNW,342,12.0,16.5,60,0.01,,CLR,0.01,VWS V14.01,2013-01-17 18:01:00,
2013-01-17 12:02:00,48.5,35.3,30.28,North,9,15.0,19.5,60,0.01,,CLR,0.01,VWS V14.01,2013-01-17 18:02:00,
2013-01-17 12:03:00,48.5,34.8,30.28,North,5,9.0,16.5,59,0.01,,CLR,0.01,VWS V14.01,2013-01-17 18:03:00,
2013-01-17 12:04:00,48.5,35.3,30.28,NE,44,10.5,15.0,60,0.01,,CLR,0.01,VWS V14.01,2013-01-17 18:04:00,
2013-01-17 12:05:00,48.5,34.8,30.28,NNE,19,7.5,12.0,59,0.01,,CLR,0.01,VWS V14.01,2013-01-17 18:05:00,
2013-01-17 12:06:00,48.5,35.3,30.28,North,11,7.5,13.5,60,0.01,,CLR,0.01,VWS V14.01,2013-01-17 18:06:00,
2013-01-17 12:07:00,48.5,35.3,30.28,NNW,336,6.0,13.5,60,0.01,,CLR,0.01,VWS V14.01,2013-01-17 18:07:00,
2013-01-17 12:08:00,48.5,34.0,30.28,North,5,7.5,22.5,57,0.01,,CLR,0.01,VWS V14.01,2013-01-17 18:08:00,
2013-01-17 12:09:00,48.5,34.4,30.28,NNE,12,18.0,22.5,58,0.01,,CLR,0.01,VWS V14.01,2013-01-17 18:09:00,
2013-01-17 12:10:00,48.5,34.4,30.28,NW,325,7.5,18.0,58,0.01,,CLR,0.01,VWS V14.01,2013-01-17 18:10:00,
2013-01-17 12:11:00,48.5,34.0,30.28,North,355,10.5,18.0,57,0.01,,CLR,0.01,VWS V14.01,2013-01-17 18:11:00,
2013-01-17 12:12:00,48.5,34.0,30.28,NNW,335,10.5,18.0,57,0.01,,CLR,0.01,VWS V14.01,2013-01-17 18:12:00,
2013-01-17 12:13:00,48.5,34.8,30.28,NE,50,3.0,13.5,59,0.01,,CLR,0.01,VWS V14.01,2013-01-17 18:13:00,
2013-01-17 12:14:00,48.5,34.4,30.28,NNE,19,4.5,15.0,58,0.01,,CLR,0.01,VWS V14.01,2013-01-17 18:14:00,
2013-01-17 12:15:00,48.5,34.4,30.28,NE,56,6.0,15.0,58,0.01,,CLR,0.01,VWS V14.01,2013-01-17 18:15:00,
2013-01-17 12:16:00,48.6,34.9,30.28,North,355,12.0,12.0,59,0.01,,CLR,0.01,VWS V14.01,2013-01-17 18:16:00,
2013-01-17 12:17:00,48.6,34.9,30.28,NNW,341,9.0,15.0,59,0.01,,CLR,0.01,VWS V14.01,2013-01-17 18:17:00,
2013-01-17 12:18:00,48.6,34.9,30.28,NNW,340,6.0,15.0,59,0.01,,CLR,0.01,VWS V14.01,2013-01-17 18:18:00,
2013-01-17 12:19:00,48.7,35.0,30.28,North,350,7.5,15.0,59,0.01,,CLR,0.01,VWS V14.01,2013-01-17 18:19:00,
2013-01-17 12:20:00,48.7,36.3,30.27,NNE,12,9.0,15.0,62,0.01,,CLR,0.01,VWS V14.01,2013-01-17 18:20:00,
2013-01-17 12:21:00,48.8,36.0,30.28,North,349,3.0,13.5,61,0.01,,CLR,0.01,VWS V14.01,2013-01-17 18:21:00,
2013-01-17 12:22:00,48.8,36.0,30.28,North,5,7.5,13.5,61,0.01,,CLR,0.01,VWS V14.01,2013-01-17 18:22:00,
2013-01-17 12:23:00,49.1,36.7,30.27,NNE,15,7.5,9.0,62,0.01,,CLR,0.01,VWS V14.01,2013-01-17 18:23:00,
2013-01-17 12:24:00,49.3,36.4,30.27,NW,304,10.5,13.5,61,0.00,,CLR,0.01,VWS V14.01,2013-01-17 18:24:00,
2013-01-17 12:25:00,49.2,35.1,30.27,NNW,329,6.0,13.5,58,0.00,,CLR,0.01,VWS V14.01,2013-01-17 18:25:00,
2013-01-17 12:26:00,49.2,34.6,30.27,NNW,328,6.0,13.5,57,0.00,,CLR,0.01,VWS V14.01,2013-01-17 18:26:00,
2013-01-17 12:27:00,49.2,34.6,30.27,North,5,4.5,13.5,57,0.00,,CLR,0.01,VWS V14.01,2013-01-17 18:27:00,
2013-01-17 12:28:00,49.2,34.2,30.27,North,355,6.0,15.0,56,0.00,,CLR,0.01,VWS V14.01,2013-01-17 18:28:00,
2013-01-17 12:29:00,49.2,33.7,30.27,NNW,342,9.0,15.0,55,0.00,,CLR,0.01,VWS V14.01,2013-01-17 18:29:00,
2013-01-17 12:30:00,49.3,34.3,30.27,NW,319,6.0,13.5,56,0.00,,CLR,0.01,VWS V14.01,2013-01-17 18:30:00,
2013-01-17 12:31:00,49.4,33.9,30.27,NNW,330,7.5,13.5,55,0.00,,CLR,0.01,VWS V14.01,2013-01-17 18:31:00,
2013-01-17 12:32:00,49.4,34.4,30.27,NNW,333,10.5,13.5,56,0.00,,CLR,0.01,VWS V14.01,2013-01-17 18:32:00,
2013-01-17 12:33:00,49.5,34.0,30.27,North,355,12.0,16.5,55,0.00,,CLR,0.01,VWS V14.01,2013-01-17 18:33:00,
2013-01-17 12:34:00,49.4,33.0,30.27,North,350,7.5,16.5,53,0.00,,CLR,0.01,VWS V14.01,2013-01-17 18:34:00,
2013-01-17 12:35:00,49.4,33.0,30.27,NNW,334,9.0,16.5,53,0.00,,CLR,0.01,VWS V14.01,2013-01-17 18:35:00,
2013-01-17 12:36:00,49.4,33.5,30.27,NNW,331,7.5,13.5,54,0.00,,CLR,0.01,VWS V14.01,2013-01-17 18:36:00,
2013-01-17 12:37:00,49.4,33.5,30.27,North,355,7.5,13.5,54,0.00,,CLR,0.01,VWS V14.01,2013-01-17 18:37:00,
2013-01-17 12:38:00,49.5,33.6,30.27,North,355,3.0,12.0,54,0.00,,CLR,0.01,VWS V14.01,2013-01-17 18:38:00,
2013-01-17 12:39:00,49.6,34.1,30.27,NNE,19,3.0,10.5,55,0.00,,CLR,0.01,VWS V14.01,2013-01-17 18:39:00,
2013-01-17 12:40:00,49.7,35.1,30.27,NE,36,6.0,10.5,57,0.00,,CLR,0.01,VWS V14.01,2013-01-17 18:40:00,
2013-01-17 12:41:00,49.9,35.3,30.27,NNW,333,7.5,12.0,57,0.00,,CLR,0.01,VWS V14.01,2013-01-17 18:41:00,
2013-01-17 12:42:00,49.9,35.3,30.27,NNW,347,12.0,12.0,57,0.00,,CLR,0.01,VWS V14.01,2013-01-17 18:42:00,
2013-01-17 12:43:00,50.1,33.7,30.27,North,11,4.5,16.5,53,0.00,,CLR,0.01,VWS V14.01,2013-01-17 18:43:00,
2013-01-17 12:44:00,50.2,34.7,30.27,NNW,338,4.5,10.5,55,0.00,,CLR,0.01,VWS V14.01,2013-01-17 18:44:00,
2013-01-17 12:45:00,50.3,33.8,30.27,NW,315,9.0,13.5,53,0.00,,CLR,0.01,VWS V14.01,2013-01-17 18:45:00,
2013-01-17 12:46:00,50.1,33.2,30.27,NNW,338,4.5,12.0,52,0.00,,CLR,0.01,VWS V14.01,2013-01-17 18:46:00,
2013-01-17 12:47:00,50.1,33.7,30.27,NNW,338,9.0,13.5,53,0.00,,CLR,0.01,VWS V14.01,2013-01-17 18:47:00,
2013-01-17 12:48:00,50.1,33.7,30.26,North,355,7.5,7.5,53,0.00,,CLR,0.01,VWS V14.01,2013-01-17 18:48:00,
2013-01-17 12:49:00,50.1,33.7,30.26,NNW,331,9.0,9.0,53,0.00,,CLR,0.01,VWS V14.01,2013-01-17 18:49:00,
2013-01-17 12:50:00,50.1,33.7,30.27,NNW,338,9.0,13.5,53,0.00,,CLR,0.01,VWS V14.01,2013-01-17 18:50:00,
2013-01-17 12:51:00,50.1,33.7,30.26,NNW,338,13.5,13.5,53,0.00,,CLR,0.01,VWS V14.01,2013-01-17 18:51:00,
2013-01-17 12:52:00,50.1,33.7,30.26,NE,36,7.5,13.5,53,0.00,,CLR,0.01,VWS V14.01,2013-01-17 18:52:00,
2013-01-17 12:53:00,50.1,34.1,30.26,NNW,341,6.0,13.5,54,0.00,,CLR,0.01,VWS V14.01,2013-01-17 18:53:00,
2013-01-17 12:54:00,50.1,34.1,30.26,North,5,1.5,12.0,54,0.00,,CLR,0.01,VWS V14.01,2013-01-17 18:54:00,
2013-01-17 12:55:00,50.1,34.1,30.26,NNW,333,6.0,13.5,54,0.00,,CLR,0.01,VWS V14.01,2013-01-17 18:55:00,
2013-01-17 12:56:00,50.2,34.2,30.26,NNE,13,6.0,13.5,54,0.00,,CLR,0.01,VWS V14.01,2013-01-17 18:56:00,
2013-01-17 12:57:00,50.3,34.3,30.26,NW,309,6.0,13.5,54,0.00,,CLR,0.01,VWS V14.01,2013-01-17 18:57:00,
2013-01-17 12:58:00,50.4,33.5,30.26,NW,321,9.0,12.0,52,0.00,,CLR,0.01,VWS V14.01,2013-01-17 18:58:00,
2013-01-17 12:59:00,50.3,32.9,30.26,NNW,344,13.5,13.5,51,0.00,,CLR,0.01,VWS V14.01,2013-01-17 18:59:00,
2013-01-17 13:00:00,50.3,32.9,30.26,North,5,10.5,12.0,51,0.00,,CLR,0.01,VWS V14.01,2013-01-17 19:00:00,
2013-01-17 13:01:00,50.2,32.8,30.26,NNW,327,4.5,13.5,51,0.00,,CLR,0.01,VWS V14.01,2013-01-17 19:01:00,
2013-01-17 13:02:00,50.3,33.8,30.26,WNW,303,13.5,13.5,53,0.00,,CLR,0.01,VWS V14.01,2013-01-17 19:02:00,
2013-01-17 13:03:00,50.3,32.9,30.26,NW,307,10.5,15.0,51,0.00,,CLR,0.01,VWS V14.01,2013-01-17 19:03:00,
2013-01-17 13:04:00,50.3,32.9,30.25,NNW,342,12.0,15.0,51,0.00,,CLR,0.01,VWS V14.01,2013-01-17 19:04:00,
2013-01-17 13:05:00,50.3,32.9,30.25,NNW,340,9.0,15.0,51,0.00,,CLR,0.01,VWS V14.01,2013-01-17 19:05:00,
2013-01-17 13:06:00,50.5,34.5,30.26,NW,321,4.5,12.0,54,0.00,,CLR,0.01,VWS V14.01,2013-01-17 19:06:00,
2013-01-17 13:07:00,50.6,34.1,30.26,NNW,331,3.0,10.5,53,0.00,,CLR,0.01,VWS V14.01,2013-01-17 19:07:00,
2013-01-17 13:08:00,50.8,34.8,30.25,NNW,329,4.5,10.5,54,0.00,,CLR,0.01,VWS V14.01,2013-01-17 19:08:00,
2013-01-17 13:09:00,51.0,35.0,30.25,NNW,328,6.0,9.0,54,0.00,,CLR,0.01,VWS V14.01,2013-01-17 19:09:00,
2013-01-17 13:10:00,51.0,35.0,30.25,NE,40,4.5,9.0,54,0.00,,CLR,0.01,VWS V14.01,2013-01-17 19:10:00,
2013-01-17 13:11:00,51.2,33.2,30.25,North,355,4.5,9.0,50,0.00,,CLR,0.01,VWS V14.01,2013-01-17 19:11:00,
2013-01-17 13:12:00,51.3,33.3,30.25,North,355,7.5,10.5,50,0.00,,CLR,0.01,VWS V14.01,2013-01-17 19:12:00,
2013-01-17 13:13:00,51.3,33.3,30.25,NNW,329,9.0,10.5,50,0.00,,CLR,0.01,VWS V14.01,2013-01-17 19:13:00,
2013-01-17 13:14:00,51.2,32.7,30.26,NNW,337,4.5,10.5,49,0.00,,CLR,0.01,VWS V14.01,2013-01-17 19:14:00,
2013-01-17 13:15:00,51.3,32.8,30.26,NNW,327,7.5,10.5,49,0.00,,CLR,0.01,VWS V14.01,2013-01-17 19:15:00,
2013-01-17 13:16:00,51.3,33.3,30.26,North,5,1.5,9.0,50,0.00,,CLR,0.01,VWS V14.01,2013-01-17 19:16:00,
2013-01-17 13:17:00,51.4,33.9,30.26,NW,321,9.0,12.0,51,0.00,,CLR,0.01,VWS V14.01,2013-01-17 19:17:00,
2013-01-17 13:18:00,51.4,33.4,30.25,North,355,10.5,15.0,50,0.00,,CLR,0.01,VWS V14.01,2013-01-17 19:18:00,
2013-01-17 13:19:00,51.3,32.3,30.25,North,351,9.0,15.0,48,0.00,,CLR,0.01,VWS V14.01,2013-01-17 19:19:00,
2013-01-17 13:20:00,51.3,32.3,30.25,NNW,342,9.0,15.0,48,0.00,,CLR,0.01,VWS V14.01,2013-01-17 19:20:00,
2013-01-17 13:21:00,51.1,33.1,30.25,NNW,343,12.0,16.5,50,0.00,,CLR,0.01,VWS V14.01,2013-01-17 19:21:00,
2013-01-17 13:22:00,51.2,33.2,30.25,NNW,344,3.0,16.5,50,0.00,,CLR,0.01,VWS V14.01,2013-01-17 19:22:00,
2013-01-17 13:23:00,51.2,33.2,30.25,NNW,344,7.5,16.5,50,0.00,,CLR,0.01,VWS V14.01,2013-01-17 19:23:00,
2013-01-17 13:24:00,51.3,33.8,30.26,NNW,329,6.0,10.5,51,0.00,,CLR,0.01,VWS V14.01,2013-01-17 19:24:00,
2013-01-17 13:25:00,51.3,33.3,30.26,NW,326,3.0,12.0,50,0.00,,CLR,0.01,VWS V14.01,2013-01-17 19:25:00,
2013-01-17 13:26:00,51.4,33.4,30.26,NNW,338,12.0,12.0,50,0.00,,CLR,0.01,VWS V14.01,2013-01-17 19:26:00,
2013-01-17 13:27:00,51.4,33.4,30.25,NNW,340,3.0,12.0,50,0.00,,CLR,0.01,VWS V14.01,2013-01-17 19:27:00,
2013-01-17 13:28:00,51.4,33.9,30.25,NW,322,9.0,12.0,51,0.00,,CLR,0.01,VWS V14.01,2013-01-17 19:28:00,
2013-01-17 13:29:00,51.4,33.4,30.25,NW,319,12.0,12.0,50,0.00,,CLR,0.01,VWS V14.01,2013-01-17 19:29:00,
2013-01-17 13:30:00,51.5,33.5,30.25,NNW,336,10.5,10.5,50,0.00,,CLR,0.01,VWS V14.01,2013-01-17 19:30:00,
2013-01-17 13:31:00,51.5,34.0,30.25,NE,36,0.0,12.0,51,0.00,,CLR,0.01,VWS V14.01,2013-01-17 19:31:00,
2013-01-17 13:32:00,51.6,35.0,30.25,North,355,6.0,9.0,53,0.00,,CLR,0.01,VWS V14.01,2013-01-17 19:32:00,
2013-01-17 13:33:00,51.7,34.7,30.25,North,360,12.0,12.0,52,0.00,,CLR,0.01,VWS V14.01,2013-01-17 19:33:00,
2013-01-17 13:35:00,51.7,34.2,30.25,NNE,32,15.0,15.0,51,0.00,,CLR,0.01,VWS V14.01,2013-01-17 19:35:00,
2013-01-17 13:41:00,51.1,33.1,30.25,NW,315,7.5,10.5,50,0.00,,CLR,0.01,VWS V14.01,2013-01-17 19:41:00,
2013-01-17 13:46:00,51.8,34.8,30.25,WNW,292,6.0,10.5,52,0.00,,CLR,0.01,VWS V14.01,2013-01-17 19:46:00,
2013-01-17 13:51:00,51.7,33.7,30.25,NNW,342,9.0,16.5,50,0.00,,CLR,0.01,VWS V14.01,2013-01-17 19:51:00,
2013-01-17 13:56:00,52.0,34.0,30.25,WNW,301,10.5,10.5,50,0.00,,CLR,0.01,VWS V14.01,2013-01-17 19:56:00,
2013-01-17 14:01:00,51.9,34.4,30.25,NW,310,12.0,15.0,51,0.00,,CLR,0.01,VWS V14.01,2013-01-17 20:01:00,
2013-01-17 14:06:00,52.2,34.6,30.25,NNW,338,12.0,15.0,51,0.00,,CLR,0.01,VWS V14.01,2013-01-17 20:06:00,
2013-01-17 14:11:00,52.1,34.0,30.25,NNW,347,12.0,18.0,50,0.00,,CLR,0.01,VWS V14.01,2013-01-17 20:11:00,
2013-01-17 14:16:00,52.3,34.7,30.25,NNE,17,4.5,13.5,51,0.00,,CLR,0.01,VWS V14.01,2013-01-17 20:16:00,
2013-01-17 14:21:00,52.5,34.4,30.25,NNW,331,7.5,13.5,50,0.00,,CLR,0.01,VWS V14.01,2013-01-17 20:21:00,
2013-01-17 14:26:00,52.6,35.5,30.25,NNE,26,3.0,7.5,52,0.00,,CLR,0.01,VWS V14.01,2013-01-17 20:26:00,
2013-01-17 14:31:00,52.8,34.2,30.25,North,360,10.5,16.5,49,0.00,,CLR,0.01,VWS V14.01,2013-01-17 20:31:00,
2013-01-17 14:36:00,52.5,35.4,30.25,NNE,22,3.0,15.0,52,0.00,,CLR,0.01,VWS V14.01,2013-01-17 20:36:00,
2013-01-17 14:41:00,52.8,35.2,30.25,NNW,341,3.0,10.5,51,0.00,,CLR,0.01,VWS V14.01,2013-01-17 20:41:00,
2013-01-17 14:46:00,52.8,34.7,30.25,NNW,342,12.0,12.0,50,0.00,,CLR,0.01,VWS V14.01,2013-01-17 20:46:00,
2013-01-17 14:51:00,52.8,35.7,30.25,NNE,12,4.5,18.0,52,0.00,,CLR,0.01,VWS V14.01,2013-01-17 20:51:00,
2013-01-17 14:56:00,53.0,35.4,30.25,NNE,13,10.5,15.0,51,0.00,,CLR,0.01,VWS V14.01,2013-01-17 20:56:00,
2013-01-17 15:01:00,53.2,35.6,30.25,NNE,31,9.0,15.0,51,0.00,,CLR,0.01,VWS V14.01,2013-01-17 21:01:00,
2013-01-17 15:06:00,53.4,35.7,30.25,NNW,331,10.5,10.5,51,0.00,,CLR,0.01,VWS V14.01,2013-01-17 21:06:00,
2013-01-17 15:11:00,53.3,36.6,30.26,NE,53,7.5,12.0,53,0.00,,CLR,0.01,VWS V14.01,2013-01-17 21:11:00,
2013-01-17 15:16:00,53.5,35.3,30.26,NNE,30,0.0,10.5,50,0.00,,CLR,0.01,VWS V14.01,2013-01-17 21:16:00,
2013-01-17 15:21:00,53.8,36.1,30.26,North,355,4.5,9.0,51,0.00,,CLR,0.01,VWS V14.01,2013-01-17 21:21:00,
2013-01-17 15:26:00,54.0,35.3,30.26,NW,318,4.5,10.5,49,0.00,,CLR,0.01,VWS V14.01,2013-01-17 21:26:00,
2013-01-17 15:31:00,54.2,36.0,30.26,NNW,343,0.0,6.0,50,0.00,,CLR,0.01,VWS V14.01,2013-01-17 21:31:00,
2013-01-17 15:36:00,54.2,35.5,30.26,North,360,9.0,16.5,49,0.00,,CLR,0.01,VWS V14.01,2013-01-17 21:36:00,
2013-01-17 15:41:00,54.0,35.3,30.26,North,355,15.0,15.0,49,0.00,,CLR,0.01,VWS V14.01,2013-01-17 21:41:00,
2013-01-17 15:46:00,54.2,35.0,30.26,NNW,336,12.0,13.5,48,0.00,,CLR,0.01,VWS V14.01,2013-01-17 21:46:00,
2013-01-17 15:51:00,54.4,36.2,30.26,North,10,3.0,12.0,50,0.00,,CLR,0.01,VWS V14.01,2013-01-17 21:51:00,
2013-01-17 15:56:00,54.6,36.8,30.26,NNW,335,10.5,13.5,51,0.00,,CLR,0.01,VWS V14.01,2013-01-17 21:56:00,
2013-01-17 16:01:00,54.4,35.7,30.27,NNE,31,3.0,12.0,49,0.00,,CLR,0.01,VWS V14.01,2013-01-17 22:01:00,
2013-01-17 16:06:00,54.5,36.8,30.27,ENE,57,4.5,10.5,51,0.00,,CLR,0.01,VWS V14.01,2013-01-17 22:06:00,
2013-01-17 16:11:00,54.5,36.3,30.27,North,355,1.5,7.5,50,0.00,,CLR,0.01,VWS V14.01,2013-01-17 22:11:00,
2013-01-17 16:16:00,54.7,36.9,30.28,ENE,59,0.0,10.5,51,0.00,,CLR,0.01,VWS V14.01,2013-01-17 22:16:00,
2013-01-17 16:21:00,54.8,37.0,30.28,NE,55,1.5,6.0,51,0.00,,CLR,0.01,VWS V14.01,2013-01-17 22:21:00,
2013-01-17 16:26:00,54.6,36.8,30.28,ENE,70,6.0,7.5,51,0.00,,CLR,0.01,VWS V14.01,2013-01-17 22:26:00,
2013-01-17 16:31:00,54.5,37.2,30.28,NNE,20,7.5,7.5,52,0.00,,CLR,0.01,VWS V14.01,2013-01-17 22:31:00,
2013-01-17 16:36:00,54.3,37.1,30.29,North,360,4.5,9.0,52,0.00,,CLR,0.01,VWS V14.01,2013-01-17 22:36:00,
2013-01-17 16:41:00,53.8,36.6,30.29,NE,40,1.5,9.0,52,0.00,,CLR,0.01,VWS V14.01,2013-01-17 22:41:00,
2013-01-17 16:46:00,53.5,36.8,30.29,ENE,76,3.0,6.0,53,0.00,,CLR,0.01,VWS V14.01,2013-01-17 22:46:00,
2013-01-17 16:51:00,53.2,37.0,30.30,ENE,73,4.5,9.0,54,0.00,,CLR,0.01,VWS V14.01,2013-01-17 22:51:00,
2013-01-17 16:56:00,52.9,36.7,30.30,NNE,32,0.0,9.0,54,0.00,,CLR,0.01,VWS V14.01,2013-01-17 22:56:00,
2013-01-17 17:01:00,52.6,36.0,30.30,NE,40,0.0,15.0,53,0.00,,CLR,0.01,VWS V14.01,2013-01-17 23:01:00,
2013-01-17 17:06:00,52.3,36.6,30.30,NE,49,0.0,6.0,55,0.00,,CLR,0.01,VWS V14.01,2013-01-17 23:06:00,
2013-01-17 17:11:00,51.9,36.3,30.31,NE,50,9.0,9.0,55,0.00,,CLR,0.01,VWS V14.01,2013-01-17 23:11:00,
2013-01-17 17:16:00,51.6,36.4,30.31,ENE,60,0.0,7.5,56,0.00,,CLR,0.01,VWS V14.01,2013-01-17 23:16:00,
2013-01-17 17:21:00,51.3,36.6,30.31,ENE,59,0.0,3.0,57,0.00,,CLR,0.01,VWS V14.01,2013-01-17 23:21:00,
2013-01-17 17:26:00,51.0,36.3,30.32,NNE,26,0.0,7.5,57,0.00,,CLR,0.01,VWS V14.01,2013-01-17 23:26:00,
2013-01-17 17:31:00,50.7,36.5,30.32,ENE,57,0.0,6.0,58,0.00,,CLR,0.01,VWS V14.01,2013-01-17 23:31:00,
2013-01-17 17:36:00,50.5,36.7,30.32,NE,44,0.0,1.5,59,0.00,,CLR,0.01,VWS V14.01,2013-01-17 23:36:00,
2013-01-17 17:41:00,50.3,37.0,30.32,NE,44,0.0,0.0,60,0.00,,CLR,0.01,VWS V14.01,2013-01-17 23:41:00,
2013-01-17 17:46:00,49.8,36.9,30.33,NE,44,0.0,1.5,61,0.00,,CLR,0.01,VWS V14.01,2013-01-17 23:46:00,
2013-01-17 17:51:00,49.6,36.7,30.33,NE,44,0.0,0.0,61,0.00,,CLR,0.01,VWS V14.01,2013-01-17 23:51:00,
2013-01-17 17:56:00,49.4,37.3,30.33,NE,44,0.0,0.0,63,0.00,,CLR,0.01,VWS V14.01,2013-01-17 23:56:00,
2013-01-17 18:01:00,49.1,37.1,30.34,NE,44,0.0,0.0,63,0.00,,CLR,0.01,VWS V14.01,2013-01-18 00:01:00,
2013-01-17 18:06:00,48.7,37.1,30.34,NE,44,0.0,0.0,64,0.00,,CLR,0.01,VWS V14.01,2013-01-18 00:06:00,
2013-01-17 18:11:00,48.4,36.8,30.34,NE,44,0.0,0.0,64,0.00,,CLR,0.01,VWS V14.01,2013-01-18 00:11:00,
2013-01-17 18:16:00,48.2,37.0,30.34,NE,44,0.0,0.0,65,0.00,,CLR,0.01,VWS V14.01,2013-01-18 00:16:00,
2013-01-17 18:21:00,48.1,36.9,30.35,NE,44,0.0,0.0,65,0.00,,CLR,0.01,VWS V14.01,2013-01-18 00:21:00,
2013-01-17 18:26:00,48.0,37.2,30.35,NE,44,0.0,0.0,66,0.00,,CLR,0.01,VWS V14.01,2013-01-18 00:26:00,
2013-01-17 18:31:00,47.7,36.9,30.35,NE,44,0.0,0.0,66,0.00,,CLR,0.01,VWS V14.01,2013-01-18 00:31:00,
2013-01-17 18:36:00,47.6,36.8,30.36,NE,44,0.0,0.0,66,0.00,,CLR,0.01,VWS V14.01,2013-01-18 00:36:00,
2013-01-17 18:41:00,47.6,36.8,30.36,NE,44,0.0,0.0,66,0.00,,CLR,0.01,VWS V14.01,2013-01-18 00:41:00,
2013-01-17 18:46:00,47.6,36.8,30.36,NE,44,0.0,0.0,66,0.00,,CLR,0.01,VWS V14.01,2013-01-18 00:46:00,
2013-01-17 18:51:00,47.4,37.0,30.36,NE,44,0.0,0.0,67,0.00,,CLR,0.01,VWS V14.01,2013-01-18 00:51:00,
2013-01-17 18:56:00,47.2,36.8,30.36,NE,44,0.0,0.0,67,0.00,,CLR,0.01,VWS V14.01,2013-01-18 00:56:00,
2013-01-17 19:01:00,47.1,36.7,30.37,NE,44,0.0,0.0,67,0.00,,CLR,0.01,VWS V14.01,2013-01-18 01:01:00,
2013-01-17 19:06:00,47.0,36.6,30.37,NE,44,0.0,0.0,67,0.00,,CLR,0.01,VWS V14.01,2013-01-18 01:06:00,
2013-01-17 19:11:00,46.9,36.9,30.37,NE,44,0.0,0.0,68,0.00,,CLR,0.01,VWS V14.01,2013-01-18 01:11:00,
2013-01-17 19:16:00,46.9,36.9,30.37,NE,44,0.0,0.0,68,0.00,,CLR,0.01,VWS V14.01,2013-01-18 01:16:00,
2013-01-17 19:21:00,46.7,37.1,30.38,NE,44,0.0,0.0,69,0.00,,CLR,0.01,VWS V14.01,2013-01-18 01:21:00,
2013-01-17 19:26:00,46.5,36.9,30.38,NE,44,0.0,0.0,69,0.00,,CLR,0.01,VWS V14.01,2013-01-18 01:26:00,
2013-01-17 19:31:00,46.3,36.7,30.38,NE,44,0.0,0.0,69,0.00,,CLR,0.01,VWS V14.01,2013-01-18 01:31:00,
2013-01-17 19:35:00,46.1,37.2,30.39,NE,44,0.0,0.0,71,0.00,,CLR,0.01,VWS V14.01,2013-01-18 01:35:00,
2013-01-17 19:41:00,45.8,37.0,30.39,NE,44,0.0,0.0,71,0.00,,CLR,0.01,VWS V14.01,2013-01-18 01:41:00,
2013-01-17 19:45:00,45.5,37.0,30.39,NE,44,0.0,0.0,72,0.00,,CLR,0.01,VWS V14.01,2013-01-18 01:45:00,
2013-01-17 19:50:00,45.2,36.7,30.39,NE,44,0.0,0.0,72,0.00,,CLR,0.01,VWS V14.01,2013-01-18 01:50:00,
2013-01-17 19:55:00,44.9,37.1,30.39,NE,44,0.0,0.0,74,0.00,,CLR,0.01,VWS V14.01,2013-01-18 01:55:00,
2013-01-17 20:00:00,44.6,37.2,30.39,NE,44,0.0,0.0,75,0.00,,CLR,0.01,VWS V14.01,2013-01-18 02:00:00,
2013-01-17 20:05:00,44.1,37.4,30.39,NE,44,0.0,0.0,77,0.00,,CLR,0.01,VWS V14.01,2013-01-18 02:05:00,
2013-01-17 20:10:00,43.7,37.3,30.39,NE,44,0.0,0.0,78,0.00,,CLR,0.01,VWS V14.01,2013-01-18 02:10:00,
2013-01-17 20:15:00,43.3,37.2,30.40,NE,44,0.0,0.0,79,0.00,,CLR,0.01,VWS V14.01,2013-01-18 02:15:00,
2013-01-17 20:20:00,42.9,37.5,30.40,NE,44,0.0,0.0,81,0.00,,CLR,0.01,VWS V14.01,2013-01-18 02:20:00,
2013-01-17 20:25:00,42.6,37.5,30.40,NE,44,0.0,0.0,82,0.00,,CLR,0.01,VWS V14.01,2013-01-18 02:25:00,
2013-01-17 20:30:00,42.2,37.1,30.40,NE,44,0.0,0.0,82,0.00,,CLR,0.01,VWS V14.01,2013-01-18 02:30:00,
2013-01-17 20:35:00,41.9,36.8,30.40,NE,44,0.0,0.0,82,0.00,,CLR,0.01,VWS V14.01,2013-01-18 02:35:00,
2013-01-17 20:40:00,41.6,37.1,30.40,NE,44,0.0,0.0,84,0.00,,CLR,0.01,VWS V14.01,2013-01-18 02:40:00,
2013-01-17 20:45:00,41.4,37.2,30.40,NE,44,0.0,0.0,85,0.00,,CLR,0.01,VWS V14.01,2013-01-18 02:45:00,
2013-01-17 20:50:00,41.2,37.0,30.41,NE,44,0.0,0.0,85,0.00,,CLR,0.01,VWS V14.01,2013-01-18 02:50:00,
2013-01-17 20:55:00,41.0,36.8,30.41,NE,44,0.0,0.0,85,0.00,,CLR,0.01,VWS V14.01,2013-01-18 02:55:00,
2013-01-17 21:00:00,40.8,36.9,30.41,NE,44,0.0,0.0,86,0.00,,CLR,0.01,VWS V14.01,2013-01-18 03:00:00,
2013-01-17 21:05:00,40.6,36.8,30.41,NE,44,0.0,0.0,86,0.00,,CLR,0.01,VWS V14.01,2013-01-18 03:05:00,
2013-01-17 21:10:00,40.4,36.5,30.41,NE,44,0.0,0.0,86,0.00,,CLR,0.01,VWS V14.01,2013-01-18 03:10:00,
2013-01-17 21:15:00,40.3,36.8,30.41,NE,44,0.0,0.0,87,0.00,,CLR,0.01,VWS V14.01,2013-01-18 03:15:00,
2013-01-17 21:20:00,40.1,36.5,30.41,NE,44,0.0,0.0,87,0.00,,CLR,0.01,VWS V14.01,2013-01-18 03:20:00,
2013-01-17 21:25:00,40.1,36.8,30.41,NE,44,0.0,0.0,88,0.00,,CLR,0.01,VWS V14.01,2013-01-18 03:25:00,
2013-01-17 21:30:00,40.0,37.0,30.42,NE,44,0.0,0.0,89,0.00,,CLR,0.01,VWS V14.01,2013-01-18 03:30:00,
2013-01-17 21:35:00,39.9,36.9,30.41,NE,44,0.0,0.0,89,0.00,,CLR,0.01,VWS V14.01,2013-01-18 03:35:00,
2013-01-17 21:40:00,39.8,37.1,30.42,NE,44,0.0,0.0,90,0.00,,CLR,0.01,VWS V14.01,2013-01-18 03:40:00,
2013-01-17 21:45:00,39.6,36.9,30.41,NE,44,0.0,0.0,90,0.00,,CLR,0.01,VWS V14.01,2013-01-18 03:45:00,
2013-01-17 21:50:00,39.5,36.8,30.41,NE,44,0.0,0.0,90,0.00,,CLR,0.01,VWS V14.01,2013-01-18 03:50:00,
2013-01-17 21:55:00,39.5,37.1,30.41,NE,44,0.0,0.0,91,0.00,,CLR,0.01,VWS V14.01,2013-01-18 03:55:00,
2013-01-17 22:00:00,39.5,37.1,30.41,NE,44,0.0,0.0,91,0.00,,CLR,0.01,VWS V14.01,2013-01-18 04:00:00,
2013-01-17 22:05:00,39.5,37.1,30.41,NE,44,0.0,0.0,91,0.00,,CLR,0.01,VWS V14.01,2013-01-18 04:05:00,
2013-01-17 22:10:00,39.4,37.0,30.41,NE,44,0.0,0.0,91,0.00,,CLR,0.01,VWS V14.01,2013-01-18 04:10:00,
2013-01-17 22:15:00,39.3,36.9,30.41,NE,44,0.0,0.0,91,0.00,,CLR,0.01,VWS V14.01,2013-01-18 04:15:00,
2013-01-17 22:20:00,39.2,36.8,30.41,NE,44,0.0,0.0,91,0.00,,CLR,0.01,VWS V14.01,2013-01-18 04:20:00,
2013-01-17 22:25:00,39.2,36.8,30.41,NE,44,0.0,0.0,91,0.00,,CLR,0.01,VWS V14.01,2013-01-18 04:25:00,
2013-01-17 22:30:00,39.3,36.9,30.41,NE,44,0.0,0.0,91,0.00,,CLR,0.01,VWS V14.01,2013-01-18 04:30:00,
2013-01-17 22:35:00,39.2,36.8,30.41,NE,44,0.0,0.0,91,0.00,,CLR,0.01,VWS V14.01,2013-01-18 04:35:00,
2013-01-17 22:40:00,39.0,36.6,30.41,NE,44,0.0,0.0,91,0.00,,CLR,0.01,VWS V14.01,2013-01-18 04:40:00,
2013-01-17 22:45:00,38.8,36.4,30.41,NE,44,0.0,0.0,91,0.00,,CLR,0.01,VWS V14.01,2013-01-18 04:45:00,
2013-01-17 22:50:00,38.7,36.3,30.41,NE,44,0.0,0.0,91,0.00,,CLR,0.01,VWS V14.01,2013-01-18 04:50:00,
2013-01-17 22:55:00,38.5,36.1,30.41,NE,44,0.0,0.0,91,0.00,,CLR,0.01,VWS V14.01,2013-01-18 04:55:00,
2013-01-17 23:00:00,38.4,36.0,30.41,NE,44,0.0,0.0,91,0.00,,CLR,0.01,VWS V14.01,2013-01-18 05:00:00,
2013-01-17 23:01:00,38.3,35.9,30.41,NE,44,0.0,0.0,91,0.00,,CLR,0.01,VWS V14.01,2013-01-18 05:01:00,
2013-01-17 23:03:00,38.3,36.2,30.42,NE,44,0.0,0.0,92,0.00,,CLR,0.01,VWS V14.01,2013-01-18 05:03:00,
2013-01-17 23:08:00,38.2,36.1,30.41,NE,44,0.0,0.0,92,0.00,,CLR,0.01,VWS V14.01,2013-01-18 05:08:00,
2013-01-17 23:13:00,38.3,36.2,30.42,NE,44,0.0,0.0,92,0.00,,CLR,0.01,VWS V14.01,2013-01-18 05:13:00,
2013-01-17 23:18:00,38.3,36.2,30.41,NE,44,0.0,0.0,92,0.00,,CLR,0.01,VWS V14.01,2013-01-18 05:18:00,
2013-01-17 23:23:00,38.5,36.4,30.41,NE,44,0.0,0.0,92,0.00,,CLR,0.01,VWS V14.01,2013-01-18 05:23:00,
2013-01-17 23:28:00,38.8,36.7,30.41,NE,44,0.0,0.0,92,0.00,,CLR,0.01,VWS V14.01,2013-01-18 05:28:00,
2013-01-17 23:33:00,39.1,37.0,30.41,NE,44,0.0,0.0,92,0.00,,CLR,0.01,VWS V14.01,2013-01-18 05:33:00,
2013-01-17 23:38:00,39.3,36.9,30.41,NE,44,0.0,0.0,91,0.00,,CLR,0.01,VWS V14.01,2013-01-18 05:38:00,
2013-01-17 23:43:00,39.5,36.8,30.41,NE,44,0.0,0.0,90,0.00,,CLR,0.01,VWS V14.01,2013-01-18 05:43:00,
2013-01-17 23:48:00,39.7,36.7,30.41,NE,44,0.0,0.0,89,0.00,,CLR,0.01,VWS V14.01,2013-01-18 05:48:00,
2013-01-17 23:53:00,39.9,36.6,30.41,NE,44,0.0,0.0,88,0.00,,CLR,0.01,VWS V14.01,2013-01-18 05:53:00,
2013-01-17 23:58:00,40.1,36.5,30.42,NE,44,0.0,0.0,87,0.00,,CLR,0.01,VWS V14.01,2013-01-18 05:58:00,